GFSSGP_850_thetae_057.txt.gz
Theta_e
314 314 320 324 319 315 315 315 312 314 316 316 314 315 316 319 315 315 336 337 333 334 334 334 333 330 329 329 330 329 331 323 322 319 317 315 313 311 309 310 311 311 312 313 314 317 318 320 321
314 318 322 318 316 316 316 311 314 313 319 320 320 322 322 325 328 334 335 336 333 333 333 333 331 330 330 331 329 329 331 322 321 322 324 324 322 318 314 310 308 308 309 310 311 313 315 316 317
317 321 322 312 311 315 315 311 312 317 317 315 318 319 322 325 329 334 331 333 333 332 332 332 331 331 331 331 328 328 331 324 322 323 327 326 325 324 322 317 313 308 306 306 307 309 311 312 312
320 319 314 314 314 313 313 312 312 317 315 315 318 320 322 325 328 328 328 333 333 332 332 332 332 332 331 330 328 327 330 325 324 325 328 327 325 323 323 320 318 314 308 305 304 305 306 306 305
320 318 313 313 313 312 309 312 316 315 312 317 317 318 323 325 325 326 331 334 334 332 333 333 332 332 331 330 329 328 328 327 326 327 328 327 325 324 324 322 318 317 315 309 305 304 304 304 304
318 314 314 314 312 312 311 313 317 313 313 315 315 319 321 322 325 327 329 333 335 334 334 334 333 333 332 331 329 329 329 329 330 328 328 327 325 325 324 324 320 317 316 316 316 311 306 303 303
315 312 313 311 312 313 312 313 313 312 313 315 317 318 318 321 323 328 330 332 334 333 333 334 334 334 332 332 330 330 330 329 329 329 328 327 326 326 325 325 322 319 318 317 316 316 316 315 313
316 310 311 310 312 314 312 313 313 314 313 315 317 314 316 319 323 329 332 333 332 333 332 332 333 333 333 333 332 331 330 330 329 330 329 328 327 326 326 325 323 320 320 319 319 318 318 317 317
313 310 311 312 311 314 311 311 311 313 314 316 316 315 315 318 322 328 332 333 333 333 333 332 332 332 333 334 333 333 332 331 330 330 329 328 327 326 326 326 324 322 321 320 320 319 319 318 318
309 308 311 309 309 312 311 312 312 313 312 314 314 315 315 318 319 323 328 330 333 333 332 332 333 333 332 332 332 331 333 332 332 331 330 329 328 327 327 326 326 323 322 321 320 320 320 319 318
309 307 309 312 313 313 312 312 312 312 311 314 315 315 315 317 319 321 323 326 325 331 332 332 333 333 333 332 332 331 331 331 332 331 330 330 329 328 328 326 325 325 323 322 321 320 320 320 319
312 310 311 313 314 313 311 312 312 312 314 315 315 315 315 315 317 317 319 323 326 328 331 332 333 334 331 332 331 331 330 330 330 330 329 329 328 328 327 328 327 325 325 323 322 321 321 321 320
311 311 313 314 314 314 313 312 312 313 315 315 315 315 315 315 316 317 319 321 324 326 327 328 330 331 332 331 329 331 330 330 330 331 330 328 328 330 328 328 328 325 324 323 323 322 321 321 320
313 313 313 313 314 313 313 313 314 315 315 314 314 315 315 315 315 317 318 318 319 321 321 322 322 325 328 328 327 329 328 328 329 328 328 327 327 328 328 329 328 325 323 323 320 319 321 320 317
312 312 311 311 313 313 313 311 311 315 315 315 315 315 315 315 315 315 316 316 315 315 316 315 315 317 319 321 324 326 327 325 329 329 328 327 326 326 326 326 327 325 323 322 319 319 320 318 316
310 309 312 310 311 312 312 311 310 311 313 314 315 315 315 315 315 315 315 315 315 314 314 314 313 313 313 312 313 318 322 325 326 326 327 326 326 325 329 326 326 325 323 321 319 320 319 316 314
308 311 311 311 310 310 310 311 310 312 311 312 313 314 315 315 315 315 314 314 314 314 314 313 313 312 312 311 311 311 316 320 325 325 325 325 325 325 328 328 327 323 322 320 321 319 317 314 312
311 312 310 311 311 309 310 309 308 312 310 313 314 314 314 314 315 315 315 314 314 314 313 313 312 312 312 312 312 311 316 318 324 324 324 325 325 325 327 328 325 323 322 322 319 317 314 312 310
308 310 311 309 309 311 310 309 309 312 310 310 314 315 316 316 318 316 314 314 314 313 313 313 312 312 312 312 312 312 316 316 324 322 324 324 325 324 328 325 325 322 322 319 318 314 311 309 307
310 311 311 309 309 310 309 310 310 309 312 313 314 315 316 317 318 318 317 315 314 314 313 313 312 312 311 312 312 313 315 319 321 322 323 326 324 325 325 324 323 322 319 318 315 311 308 306 305
309 310 310 311 310 308 308 309 309 308 309 312 314 315 315 316 317 317 317 317 315 314 314 314 313 312 311 311 312 314 315 321 320 322 322 321 321 321 323 322 321 320 318 317 312 307 305 303 302
310 307 309 311 312 312 309 311 310 309 309 308 313 314 316 317 316 317 317 316 316 316 315 314 312 311 311 310 311 313 313 318 319 319 321 321 320 321 319 319 319 318 317 314 305 302 301 300 300
310 307 308 310 310 311 310 312 311 309 310 310 311 314 316 316 316 316 316 316 315 315 314 314 312 311 310 310 311 312 313 319 318 319 320 319 319 318 317 317 318 317 314 304 300 299 299 298 297
307 309 308 307 309 312 310 311 311 309 311 311 310 315 315 315 315 315 315 315 315 314 313 312 312 311 310 309 310 312 312 319 319 318 319 319 318 318 317 318 316 314 307 299 297 297 296 295 295
310 311 312 311 312 315 308 310 313 310 309 309 311 315 315 315 315 316 317 317 317 316 315 313 311 310 309 309 310 312 314 319 317 318 318 317 317 317 317 316 313 308 299 296 295 295 295 295 295
309 311 311 310 309 309 308 312 312 308 310 311 312 314 314 313 314 315 316 317 317 316 315 314 312 309 308 308 310 312 315 317 316 316 317 316 316 316 316 315 309 299 296 295 295 295 294 294 294
310 312 310 310 296 307 308 307 307 307 308 309 312 313 313 314 316 317 317 317 317 316 315 313 312 309 308 308 310 312 313 315 315 316 316 316 316 315 314 313 302 296 294 294 294 294 294 294 293
309 309 312 309 310 308 309 308 311 312 312 309 308 311 314 315 316 317 317 317 316 315 314 313 311 309 308 307 309 311 313 315 315 316 315 315 315 315 313 309 297 294 294 294 294 293 293 293 292
311 311 310 310 309 310 308 311 306 309 309 309 308 313 315 316 317 317 317 317 317 316 315 313 311 309 307 307 308 310 311 315 315 315 314 314 314 314 312 305 296 294 293 293 293 293 293 292 292
307 309 310 311 309 307 308 314 309 307 309 310 311 312 314 316 315 317 316 317 316 316 315 314 311 310 308 307 308 310 312 314 315 313 313 313 313 312 308 299 294 293 293 293 293 293 292 292 291

GFSSGP_850_thetae_060.txt.gz
Theta_e
314 314 319 324 325 323 322 321 319 320 320 318 318 319 321 321 319 325 334 335 336 335 336 334 333 328 330 333 332 332 324 320 319 317 314 312 310 309 310 310 311 312 313 325 326 322 321 318 316
314 316 322 321 324 323 321 320 320 320 321 319 320 322 324 327 329 334 337 334 334 334 335 334 331 329 329 330 329 332 323 320 323 324 323 321 317 314 310 308 308 309 310 315 316 316 315 314 310
315 320 324 324 323 322 320 319 320 320 320 319 321 321 323 327 330 336 336 334 334 334 334 333 331 330 330 330 329 331 325 322 324 326 325 323 322 320 316 312 307 306 306 308 310 311 311 309 305
319 319 317 323 322 320 319 319 318 321 316 315 320 323 323 325 331 331 334 334 333 333 333 332 331 331 331 330 328 330 326 323 325 327 326 324 323 321 319 316 312 307 305 305 306 307 306 305 306
320 320 323 322 321 318 317 317 320 319 317 318 320 322 324 327 330 329 330 334 336 334 332 332 331 332 331 329 328 329 329 325 326 328 326 324 323 323 321 317 316 313 308 305 304 304 304 304 304
321 319 322 323 320 318 316 315 319 318 316 318 317 321 323 323 323 327 330 335 336 333 332 332 332 332 331 330 329 329 330 329 327 328 327 325 324 324 324 321 317 316 316 314 310 306 304 303 303
322 323 322 321 320 318 318 315 319 318 317 318 318 321 320 322 323 325 332 336 336 334 333 333 333 332 332 330 329 329 329 330 329 328 328 326 325 325 325 321 318 318 317 316 316 315 314 312 308
318 321 320 319 319 319 316 316 315 317 317 315 318 319 319 322 322 324 327 333 335 334 334 334 334 334 333 331 330 330 330 329 329 329 328 327 326 325 326 323 321 320 319 318 318 317 317 316 316
315 320 321 320 318 319 313 316 312 313 315 315 316 315 316 319 320 325 328 331 333 333 332 332 333 333 333 333 331 331 331 330 330 330 329 328 327 326 326 325 323 322 321 320 319 318 318 317 317
317 320 319 317 317 318 315 316 314 315 315 316 315 315 315 318 321 325 329 331 331 332 331 332 332 332 333 332 332 332 333 331 331 330 330 329 327 326 326 325 324 323 322 321 320 320 319 318 317
313 318 313 314 313 314 315 314 313 315 317 317 317 316 315 318 320 329 331 332 329 329 329 331 332 331 331 331 330 330 330 332 331 331 331 329 329 327 327 325 324 324 322 322 321 320 320 319 317
315 312 313 315 314 314 315 314 314 314 318 315 315 315 315 315 318 320 330 332 332 329 329 330 330 332 332 331 331 331 330 330 329 330 330 329 328 327 327 326 325 324 324 322 322 320 320 320 318
314 314 313 314 313 313 312 314 315 314 315 314 315 315 315 315 316 318 325 331 327 327 329 330 330 332 332 330 330 330 330 331 330 330 330 329 328 328 327 327 327 325 324 323 322 320 320 320 319
314 314 314 314 314 313 315 315 314 316 315 315 315 315 315 315 315 318 319 320 322 325 327 329 330 332 334 333 332 329 330 329 330 330 329 330 328 327 330 328 328 326 324 323 322 320 320 319 317
312 316 315 314 314 315 313 315 316 316 315 314 314 315 315 315 315 315 316 318 319 320 325 325 327 330 331 332 332 331 327 328 328 327 328 328 329 327 327 326 326 327 324 323 322 320 318 319 316
315 316 317 315 313 314 314 318 317 312 313 315 315 315 315 315 315 315 315 316 318 319 320 322 322 322 323 324 326 327 328 328 329 326 327 327 327 327 326 325 327 327 324 323 322 320 318 318 315
316 317 317 316 313 314 315 318 317 312 312 314 314 314 314 315 315 315 315 315 316 316 317 316 316 315 315 315 316 317 321 325 324 326 325 327 327 326 326 326 328 326 326 323 322 320 317 317 313
317 317 315 316 314 313 316 316 317 315 312 314 316 315 314 314 315 315 315 315 315 315 315 315 314 314 313 313 313 312 312 314 318 325 324 325 325 325 324 325 327 328 325 322 321 320 317 315 312
314 315 315 315 313 314 317 317 317 316 315 315 315 315 316 316 318 317 315 315 314 314 314 314 314 314 313 313 312 311 312 311 314 322 319 325 324 324 324 325 327 326 324 323 321 321 317 313 310
314 316 316 315 312 313 316 316 316 316 315 316 316 316 316 316 317 317 317 316 315 314 314 314 314 313 313 312 312 311 312 312 315 319 320 324 323 324 325 326 326 324 323 321 321 319 316 312 310
314 316 315 315 313 312 314 316 317 316 314 314 314 315 315 316 316 315 316 316 317 316 315 314 314 313 313 312 311 311 311 312 315 319 319 321 323 323 323 325 324 325 324 322 322 318 316 312 308
315 313 314 314 315 316 313 315 316 316 316 315 315 316 315 315 315 314 314 316 316 317 316 315 314 313 313 311 311 311 311 312 315 315 318 322 322 324 326 325 324 324 323 322 319 318 314 311 307
315 311 313 313 316 315 315 316 315 314 315 316 316 316 316 316 315 315 316 316 316 315 316 315 314 313 313 312 311 311 311 312 314 315 319 322 322 322 322 320 321 321 321 320 318 316 312 309 306
310 313 313 314 316 317 316 315 315 316 316 316 315 315 315 315 315 315 315 315 315 315 315 314 314 313 312 312 311 310 310 311 314 316 319 321 321 321 321 323 320 318 319 319 317 314 308 306 304
313 316 316 318 319 318 313 315 315 315 314 314 315 315 314 313 314 315 316 317 317 317 315 314 314 313 312 311 310 310 310 310 313 314 319 319 320 320 319 319 318 317 318 316 313 306 303 303 302
314 315 316 319 317 315 310 315 316 315 313 312 312 314 313 313 313 314 316 316 317 317 317 316 314 314 312 310 309 309 309 310 313 315 318 318 319 319 319 318 317 317 317 314 307 300 301 301 297
313 314 314 315 307 313 314 315 315 314 312 312 313 314 314 314 315 315 316 318 318 317 317 316 316 314 313 311 308 308 309 309 311 312 317 318 318 318 317 317 317 316 315 309 300 298 298 296 293
312 313 315 314 320 318 314 314 316 316 316 316 314 313 313 313 314 315 316 318 318 317 317 316 315 314 312 310 308 308 308 309 310 313 316 316 316 316 316 316 316 315 313 304 296 295 294 293 293
312 313 313 313 315 317 317 315 315 315 316 314 314 312 313 314 315 316 317 317 317 316 316 316 316 314 313 311 309 308 308 308 311 313 317 315 315 316 315 315 315 313 308 298 294 294 293 293 292
312 314 314 315 316 314 315 317 311 314 314 312 313 313 315 314 315 317 317 317 317 317 317 317 317 316 314 312 310 308 307 308 310 312 313 315 315 316 314 314 313 311 303 295 293 293 293 292 292

GFSSGP_850_thetae_063.txt.gz
Theta_e
316 315 319 325 327 324 323 323 322 322 324 321 323 322 323 322 322 332 337 339 338 335 334 333 331 329 332 335 332 323 320 318 316 313 311 309 309 310 311 312 313 327 329 326 321 318 315 311 307
315 316 323 324 326 325 323 322 321 322 323 321 322 323 324 329 330 336 338 339 339 339 338 333 330 329 331 333 332 323 320 322 323 322 320 317 313 309 308 309 310 319 326 322 314 313 311 307 306
315 320 324 326 325 324 322 321 322 321 322 321 322 323 324 329 331 337 340 338 339 339 339 336 330 329 330 331 332 326 321 324 326 325 323 321 319 315 310 307 307 310 314 310 311 310 307 306 307
320 321 322 324 324 322 321 321 321 323 319 319 322 323 324 328 335 336 339 338 338 339 339 333 330 329 330 329 330 329 323 324 326 325 323 321 320 319 315 311 307 306 306 307 307 305 305 306 306
320 322 325 324 323 322 320 320 321 322 320 320 321 323 325 327 331 336 338 338 338 338 339 332 331 330 331 329 329 330 325 325 327 326 324 323 323 321 317 315 311 308 305 304 304 304 305 305 305
322 322 324 324 323 321 320 319 321 320 319 321 320 321 324 328 331 335 338 338 337 338 338 331 331 331 331 329 329 330 329 326 327 327 325 324 324 323 320 317 316 314 312 308 305 304 303 303 304
323 323 323 324 322 321 321 319 321 320 319 319 320 321 323 327 329 334 336 336 336 337 337 333 332 332 331 329 329 330 330 329 327 328 326 325 325 325 321 318 317 316 315 315 314 311 309 306 304
321 322 323 322 322 321 320 319 320 320 319 318 320 321 321 324 329 333 336 336 335 337 338 338 334 332 332 330 329 329 330 330 329 328 327 326 325 325 323 320 320 318 318 317 317 316 316 314 310
317 321 321 321 321 320 318 319 316 317 318 318 319 318 319 324 329 333 335 335 335 337 338 337 339 334 335 333 330 330 330 330 330 329 328 327 326 325 325 323 321 320 320 319 318 318 317 317 316
320 321 321 320 320 320 318 318 318 317 317 318 318 316 316 326 328 331 333 334 335 337 338 336 337 336 336 338 333 331 330 330 330 330 329 329 330 329 325 324 323 322 321 320 319 319 317 316 316
319 321 319 318 317 317 318 317 317 317 319 318 318 318 316 323 327 328 331 332 334 335 336 336 336 337 336 337 333 332 332 331 331 331 330 331 331 328 326 325 324 323 322 321 320 319 318 316 315
316 316 316 317 317 316 318 318 317 317 318 318 318 318 317 323 326 328 330 331 332 333 335 334 335 338 336 338 333 331 330 332 332 332 331 330 328 327 327 325 324 323 322 322 321 320 320 318 316
315 316 315 316 315 316 315 317 318 318 318 317 316 316 317 320 324 327 329 331 332 333 333 334 333 334 333 331 331 331 330 330 330 329 331 330 329 328 327 327 326 325 323 322 322 321 320 319 317
316 316 316 316 316 316 316 317 316 318 318 317 316 315 316 317 320 325 328 330 332 333 333 333 330 329 332 331 331 330 330 330 330 330 330 329 329 328 327 327 327 325 324 323 323 322 319 318 317
316 317 316 316 316 317 315 317 317 316 316 316 317 316 316 316 317 321 324 327 331 333 332 332 326 327 329 330 330 331 329 329 329 330 330 330 328 328 327 327 328 326 326 323 322 322 319 318 316
317 317 317 318 316 316 317 317 319 317 317 316 316 317 317 316 316 317 321 325 327 331 328 327 323 325 327 329 331 331 331 330 330 329 330 330 330 328 328 327 327 327 325 324 322 321 321 318 316
318 317 318 318 316 317 317 319 319 315 315 316 316 317 317 317 316 316 316 317 318 324 324 322 321 323 325 327 331 332 331 331 330 328 328 326 328 328 327 328 327 325 326 325 322 321 320 318 316
317 318 317 318 317 316 317 318 318 317 317 317 317 318 318 317 317 316 315 315 316 318 319 319 319 319 322 325 326 327 328 326 328 328 324 326 326 325 327 328 327 327 327 325 323 321 320 318 316
316 317 317 317 316 316 317 317 317 317 317 317 317 317 317 317 318 317 316 315 315 315 315 316 317 317 319 319 319 318 317 315 319 323 321 327 326 324 327 326 326 326 324 325 324 322 320 318 315
316 316 316 317 316 315 316 317 317 317 317 317 317 317 317 317 317 318 317 315 316 315 315 315 315 315 315 315 314 313 313 313 312 312 313 320 325 324 325 324 325 325 327 324 324 321 320 317 316
316 316 316 316 316 315 316 317 317 318 317 317 317 317 317 317 317 318 318 316 316 316 316 315 314 314 314 314 314 313 313 312 312 312 312 314 323 323 321 324 324 325 325 325 324 321 320 319 315
315 316 316 316 316 315 316 316 316 317 317 318 317 317 317 317 317 317 317 317 316 315 316 316 314 314 314 313 313 313 313 313 312 312 312 313 320 320 322 324 324 326 325 323 322 322 320 320 317
316 314 315 316 317 317 317 317 316 317 317 317 317 317 318 318 318 318 317 316 316 315 314 314 314 314 313 313 313 313 313 312 311 311 312 313 319 318 323 323 327 328 325 324 322 322 319 319 316
314 316 316 317 317 316 316 316 316 317 317 317 317 318 318 317 317 316 315 315 315 314 314 314 313 314 313 313 312 312 312 311 311 311 311 312 319 318 320 324 324 324 324 324 323 321 320 318 315
315 316 315 317 320 317 316 316 317 316 317 317 317 317 316 316 315 315 315 315 316 316 315 315 314 313 313 312 312 311 311 311 311 311 311 311 317 316 323 321 325 324 323 321 320 320 318 317 314
315 316 317 318 318 318 314 317 316 317 317 316 315 315 315 315 314 314 314 315 317 317 317 316 316 314 313 312 312 311 310 310 311 311 311 311 315 316 321 323 321 319 321 321 319 318 317 316 312
315 316 316 318 316 316 315 316 316 317 315 315 315 315 315 315 316 315 315 314 315 316 317 317 316 315 314 312 312 311 310 310 310 310 310 310 314 316 321 322 321 322 321 319 318 317 315 312 310
314 314 315 315 321 318 315 316 316 317 317 317 317 316 316 316 316 315 315 316 316 317 317 317 317 316 315 314 313 312 311 310 309 309 310 310 314 315 319 319 320 320 320 318 317 315 313 308 305
313 313 314 315 315 317 318 316 317 317 317 317 317 316 316 316 315 314 314 314 316 317 317 317 317 316 316 315 314 312 310 310 309 309 309 310 314 313 318 318 319 319 317 317 316 314 310 303 303
314 314 314 316 316 315 316 317 317 316 315 316 315 315 315 315 316 315 315 315 316 317 317 317 317 317 317 315 314 313 311 310 309 308 308 309 311 312 316 315 316 316 316 316 314 311 304 300 301

GFSSGP_850_thetae_069.txt.gz
Theta_e
319 318 318 325 321 316 319 319 317 320 319 321 321 321 325 328 334 335 334 332 331 330 331 332 333 333 333 324 319 317 314 312 310 309 310 311 313 323 331 333 331 324 314 312 308 307 310 317 324
318 316 322 323 319 316 316 316 318 319 319 321 321 323 325 330 333 334 333 333 331 331 331 330 332 334 335 325 320 321 322 321 319 315 311 309 310 317 328 328 322 314 312 309 306 308 311 319 325
315 318 322 319 316 316 317 317 318 319 321 321 322 323 327 333 335 338 337 335 331 331 331 329 331 332 333 329 320 321 324 324 322 320 318 314 309 309 315 314 310 309 309 307 306 308 313 319 321
317 322 320 316 319 317 316 317 319 318 320 321 322 323 329 334 335 339 338 337 334 334 332 330 329 331 331 331 323 321 323 325 323 321 319 318 315 310 308 307 307 307 307 305 306 308 313 321 323
318 322 318 320 319 317 315 320 321 318 318 320 321 322 329 335 338 338 339 339 337 336 334 331 329 330 330 331 327 322 323 325 324 322 321 320 318 314 312 309 307 306 305 305 306 307 313 320 322
320 319 317 319 318 317 316 320 321 318 319 320 319 324 327 334 335 337 338 339 338 336 336 333 329 329 330 329 329 325 324 326 325 323 322 322 321 319 315 312 309 307 306 305 305 306 310 317 321
320 317 317 319 316 317 316 319 318 316 319 319 319 320 327 328 332 336 338 338 337 336 336 335 330 329 331 329 329 329 325 326 326 325 323 323 322 319 316 314 313 311 309 306 305 305 307 313 318
320 316 318 317 317 318 317 319 319 318 317 319 318 318 326 325 332 337 337 337 336 336 335 335 330 330 330 330 329 329 329 326 327 326 325 324 323 320 318 317 316 315 313 310 307 305 306 310 316
318 313 315 317 318 316 318 317 318 318 318 318 318 320 322 323 329 338 337 337 336 334 333 333 330 330 330 330 328 329 329 329 327 327 326 325 324 323 321 319 319 318 317 316 314 310 308 309 314
316 312 316 315 315 315 317 318 317 317 317 318 318 317 320 322 324 330 336 336 336 334 333 332 330 331 331 330 329 328 329 328 329 328 327 326 325 324 324 322 321 320 319 318 317 315 313 313 314
317 315 315 315 316 317 317 317 317 316 314 316 317 317 321 322 323 324 329 336 335 335 333 332 333 333 331 331 330 329 328 329 329 329 328 327 326 325 324 324 323 322 321 320 318 317 316 315 315
315 315 315 316 316 316 316 317 316 316 317 317 317 317 318 321 320 319 326 333 335 335 334 331 333 332 332 332 329 330 329 329 329 329 329 328 327 327 325 325 323 323 322 321 320 319 318 315 314
313 314 314 316 315 316 316 316 316 316 317 317 317 318 318 318 318 317 319 327 333 334 334 332 333 333 332 331 332 332 332 330 330 330 329 328 327 327 326 324 323 323 322 322 322 321 320 317 314
315 315 314 315 315 315 314 314 315 316 317 317 316 317 318 318 317 317 320 321 325 330 332 333 333 333 332 333 332 331 332 332 331 331 331 330 329 328 327 325 324 323 323 322 321 321 321 319 317
315 314 313 314 315 315 315 310 312 315 316 317 317 316 316 317 317 316 316 317 319 324 328 330 331 334 332 333 332 333 332 333 332 331 331 332 331 330 330 327 325 324 323 322 323 321 321 319 318
314 313 312 313 313 315 313 308 311 315 315 316 316 316 316 316 316 316 316 317 319 323 328 330 330 331 332 332 332 334 332 334 332 330 329 330 330 330 330 329 326 324 323 323 324 323 322 320 319
313 310 311 315 314 314 313 311 314 316 315 315 315 316 316 316 316 316 316 316 317 320 326 329 331 330 331 330 332 334 334 333 330 328 329 329 330 330 330 330 328 326 324 324 325 323 323 321 319
313 314 313 313 314 313 313 311 311 315 315 316 316 316 316 316 316 316 316 316 316 316 320 326 330 330 330 331 329 330 329 329 329 329 328 327 328 329 330 330 330 327 326 325 325 324 323 320 320
314 314 313 313 313 314 312 311 311 314 314 313 315 316 316 317 316 317 317 317 317 316 316 320 326 328 329 330 330 328 328 329 330 330 330 327 328 331 330 330 330 329 328 327 325 325 323 320 317
314 314 312 312 313 313 312 311 310 310 312 314 314 314 315 316 316 317 317 317 317 317 316 316 318 323 326 327 326 327 324 324 327 328 330 328 330 328 329 328 327 330 330 328 327 326 324 318 320
314 313 312 312 312 311 310 309 310 311 313 314 314 315 315 315 316 316 316 317 317 317 317 317 316 316 320 323 325 327 326 326 328 327 328 327 326 327 327 328 326 327 327 329 326 326 325 324 321
313 312 312 312 311 310 311 309 310 312 310 309 313 315 316 316 316 316 316 316 316 317 317 317 317 316 316 320 323 324 322 321 320 323 326 326 327 326 327 329 326 323 327 327 327 326 326 324 323
312 313 313 313 313 314 312 310 309 309 310 309 311 314 315 317 316 317 317 317 317 316 317 317 317 316 316 317 318 319 320 320 320 321 322 323 323 323 320 325 325 325 325 326 326 326 323 323 323
311 313 313 312 311 310 310 309 308 309 310 312 313 315 316 316 315 315 315 315 317 317 316 317 317 316 315 315 315 316 316 316 316 317 316 316 315 314 314 315 323 325 320 324 324 324 325 322 323
313 310 309 312 312 310 309 309 309 310 310 312 314 314 314 314 314 314 315 315 315 315 316 316 316 316 315 314 314 314 314 314 314 314 314 314 314 313 313 312 312 317 324 321 322 323 324 319 321
311 309 309 311 314 312 308 311 312 309 312 313 314 314 315 316 316 315 315 315 315 315 314 314 314 314 314 313 313 313 313 313 313 313 313 313 313 313 313 312 311 311 318 321 322 322 322 321 321
311 313 310 311 300 308 309 309 309 309 309 313 313 314 315 314 315 316 316 316 316 314 314 314 314 314 313 313 313 312 312 312 312 312 312 312 312 312 312 312 312 312 311 319 317 319 319 322 321
311 310 312 310 309 310 309 309 311 310 310 311 313 315 314 315 315 316 316 316 315 314 314 314 313 313 313 313 313 313 313 313 313 312 312 312 312 312 312 311 311 311 311 310 318 318 318 319 317
310 311 311 311 310 311 309 310 307 309 311 312 313 314 314 315 315 315 315 315 314 314 314 315 315 315 315 314 314 314 314 314 313 313 312 312 312 312 311 311 311 311 310 311 317 318 318 315 318
309 310 310 311 310 308 309 313 309 308 309 311 312 314 314 314 314 315 314 315 315 315 314 315 315 315 315 315 314 314 314 314 314 315 314 313 312 312 311 311 311 310 310 310 314 316 316 317 318

GFSSGP_850_thetae_072.txt.gz
Theta_e
318 319 318 323 320 314 317 318 318 320 319 320 321 323 324 328 333 327 331 331 331 329 331 332 332 330 321 318 317 313 311 310 310 311 313 321 330 332 332 330 324 313 309 307 315 317 318 322 326
318 317 319 323 316 315 315 316 319 318 319 321 323 325 326 332 334 333 332 331 331 331 331 332 331 332 321 318 320 320 318 316 313 310 310 315 327 327 326 322 314 311 307 308 314 317 320 325 321
317 316 321 316 312 314 315 317 316 318 320 320 321 325 328 334 333 331 331 330 330 331 331 332 333 334 326 319 321 323 322 320 318 316 310 310 323 317 313 310 309 309 306 308 313 311 314 319 322
316 321 319 314 317 316 314 316 317 317 319 321 322 326 329 333 332 333 330 331 331 331 330 330 332 332 330 321 320 323 324 322 320 318 316 312 310 309 308 307 308 307 306 308 310 312 318 324 324
317 321 315 317 318 316 316 318 318 316 318 320 323 322 333 334 335 336 335 333 331 331 330 329 330 331 330 328 321 321 325 323 322 320 318 316 314 311 309 307 307 306 306 307 309 313 316 325 324
319 318 316 316 317 315 316 320 318 316 317 319 322 328 334 336 338 336 337 338 334 333 332 329 329 330 330 330 325 322 324 325 323 322 320 320 319 316 312 309 307 305 305 306 310 313 318 321 322
318 315 316 318 315 316 315 319 317 317 317 319 322 323 330 337 338 337 338 337 337 336 334 331 329 329 330 329 329 325 324 325 325 323 322 321 320 317 315 313 310 307 305 306 309 313 318 319 320
320 314 317 316 314 317 316 317 318 318 317 318 319 323 328 334 336 337 338 337 336 336 335 334 330 329 330 329 329 328 326 325 325 325 324 323 321 318 316 315 314 312 310 307 306 308 311 315 316
317 313 313 316 316 317 316 316 317 317 318 318 318 320 321 327 335 338 338 336 333 334 334 335 333 329 330 330 328 329 328 326 326 326 325 324 322 321 319 317 316 315 314 311 308 307 308 310 313
314 311 313 314 314 315 316 317 317 317 317 317 317 319 321 321 331 337 337 336 334 334 333 333 334 330 329 330 329 328 328 328 327 327 326 325 324 323 322 320 319 318 317 315 313 311 310 311 313
315 312 313 315 316 316 315 315 316 315 313 316 317 317 321 323 329 330 333 335 333 335 333 332 331 330 330 330 329 328 328 328 328 327 327 326 325 324 323 323 322 321 319 318 316 315 314 314 314
315 314 314 315 315 315 315 315 315 315 316 317 316 316 318 321 323 324 326 330 334 334 334 332 329 329 330 331 330 329 328 328 328 328 327 327 326 325 324 324 323 322 321 321 319 319 317 316 315
313 313 314 315 315 315 315 315 315 315 316 317 317 316 318 319 319 320 320 324 331 334 334 334 333 329 329 330 330 330 329 329 328 329 328 328 327 326 326 324 323 323 322 321 321 321 320 319 315
314 314 314 314 314 314 314 313 315 315 316 316 316 316 317 318 318 319 320 322 330 333 334 333 333 331 331 330 330 330 328 330 330 329 329 329 328 327 327 325 323 322 321 321 321 321 320 320 319
314 312 312 313 314 314 314 310 311 313 315 315 316 316 317 317 318 319 317 317 320 322 329 331 331 331 332 331 331 331 331 330 332 331 330 329 329 327 327 327 324 323 322 322 321 321 320 320 319
312 309 309 310 312 314 311 307 308 314 314 314 315 315 316 316 317 317 317 317 318 321 323 325 327 330 331 331 331 332 331 331 331 332 331 330 331 328 327 327 327 325 323 323 322 321 321 320 320
309 308 311 311 312 313 312 310 311 315 314 314 314 315 315 315 316 316 316 316 316 318 320 323 327 327 329 330 331 331 331 332 332 332 332 331 330 329 330 329 329 328 325 323 322 323 322 321 320
311 312 311 311 312 312 313 310 309 315 313 314 314 315 316 315 316 316 315 316 316 316 318 320 324 327 330 330 331 332 332 331 333 331 331 330 329 329 330 330 329 330 328 325 323 323 323 322 320
311 312 313 312 313 313 311 310 309 313 313 313 314 314 314 315 315 316 316 316 316 316 316 317 322 326 329 331 332 332 332 331 331 331 331 330 328 328 329 331 331 331 329 327 325 323 322 321 319
312 312 312 311 312 312 311 310 308 309 311 313 313 314 314 314 314 314 316 316 316 316 316 316 317 320 325 329 330 332 331 331 331 330 330 330 329 329 328 329 327 328 327 328 326 325 324 320 319
312 311 311 311 311 309 310 306 307 309 311 313 313 313 314 315 315 315 315 315 316 316 316 316 316 316 317 323 330 331 332 332 331 330 329 332 331 329 329 327 327 326 327 327 327 326 324 322 321
312 311 311 311 310 309 309 307 308 309 308 308 312 311 313 314 315 316 316 316 316 316 316 316 316 316 316 318 322 326 328 329 328 327 328 328 331 331 331 328 327 327 326 326 324 325 326 324 323
310 311 312 312 311 312 310 309 307 307 309 307 309 312 316 316 316 316 315 315 316 317 316 316 316 316 316 317 319 321 324 325 327 327 327 326 328 330 329 327 327 326 325 324 324 323 323 324 322
310 311 309 309 307 308 308 307 305 307 309 311 311 313 313 314 314 314 314 314 314 314 316 316 316 316 316 317 318 318 318 321 324 325 325 324 323 326 329 328 326 326 325 323 323 322 322 324 323
309 307 308 309 309 308 307 307 307 308 308 311 310 312 315 315 316 316 316 316 315 315 314 314 315 316 315 315 316 316 317 320 321 321 320 319 319 320 321 322 325 325 325 322 320 319 322 320 322
309 307 308 308 310 308 307 310 310 309 310 311 311 313 314 314 315 316 316 316 315 315 314 314 314 314 314 315 314 314 314 315 315 315 315 314 314 314 314 314 314 314 314 315 317 316 318 319 320
311 311 307 308 297 307 308 307 308 308 308 309 311 314 314 314 315 315 315 315 315 315 314 315 315 314 313 313 313 313 313 313 312 313 313 313 313 313 313 313 313 313 313 312 312 313 311 316 318
310 309 311 308 307 307 307 308 309 309 310 308 309 313 313 314 314 314 314 314 315 315 315 315 315 315 314 314 313 313 312 312 312 312 312 312 312 312 312 312 312 312 312 312 312 312 312 312 315
310 310 310 309 308 309 308 309 305 309 308 308 310 312 313 313 314 314 314 313 314 313 313 314 314 315 315 314 314 314 314 314 313 314 314 314 313 313 313 312 312 311 311 311 312 312 312 311 311
308 309 309 310 309 307 309 310 307 306 307 310 311 312 313 313 314 314 314 314 314 314 314 314 315 314 314 315 315 314 314 313 313 314 314 313 313 313 313 312 312 311 311 311 311 311 310 309 308

GFSSGP_850_thetae_075.txt.gz
Theta_e
317 318 317 320 320 312 315 316 318 319 318 319 320 321 320 328 323 319 330 331 328 327 331 331 330 325 318 315 312 310 310 311 312 314 326 330 333 333 330 321 313 309 317 321 323 320 322 318 313
317 316 317 322 314 315 314 314 317 317 319 326 324 325 327 331 333 331 331 331 330 329 332 331 331 325 318 317 315 313 312 310 310 313 325 329 331 328 321 313 311 308 317 321 325 320 321 319 316
315 316 320 314 309 314 314 315 316 317 320 319 322 325 328 330 330 330 331 330 329 331 332 331 330 326 319 320 322 321 318 316 312 310 321 328 320 316 312 310 309 308 320 322 322 319 322 321 317
316 320 318 312 315 314 314 314 315 316 318 320 322 325 329 330 328 330 330 331 331 331 331 332 333 331 320 319 323 323 321 319 316 313 312 318 312 311 308 309 308 307 318 324 313 324 322 323 322
317 321 314 316 316 315 315 316 316 316 317 320 322 324 331 330 332 331 330 330 330 331 331 331 333 332 327 320 319 323 323 321 319 317 315 313 311 309 307 307 306 306 316 319 318 326 325 323 324
318 317 314 316 316 314 317 318 317 315 316 318 323 329 333 334 334 332 330 330 330 330 329 330 331 331 330 326 320 320 324 323 322 320 318 318 316 312 309 307 306 306 308 309 314 322 321 322 322
317 312 314 315 315 315 315 318 314 315 316 318 324 323 329 335 336 334 334 331 330 331 330 328 329 330 330 329 325 322 324 324 323 322 320 320 318 315 313 310 308 306 306 307 309 311 317 318 320
320 313 316 315 314 316 314 317 317 317 317 318 322 323 330 331 337 335 336 336 335 334 332 330 328 329 329 328 328 326 324 325 324 323 323 321 318 315 314 313 311 308 306 307 308 311 313 315 315
317 312 314 314 313 315 314 315 315 316 317 317 318 319 321 330 336 337 337 337 337 336 335 333 330 328 329 329 328 328 326 325 325 325 324 323 320 319 317 315 314 312 310 307 308 308 309 312 314
314 312 313 313 312 314 315 315 316 316 316 317 317 318 321 328 336 336 337 336 335 334 334 335 334 330 329 330 329 328 328 327 326 326 325 324 322 321 320 319 317 316 314 313 311 310 310 311 313
313 313 311 314 314 315 315 315 315 314 314 316 317 317 321 326 334 335 335 333 331 331 331 332 333 333 329 329 329 328 328 327 327 326 326 325 324 323 322 321 320 319 318 318 316 314 313 313 313
314 313 313 315 315 315 314 314 314 314 316 316 317 317 318 322 325 330 333 332 331 332 331 330 330 331 331 329 329 329 328 327 328 327 326 326 325 325 324 323 323 322 321 321 320 319 317 316 315
312 312 314 315 314 314 315 314 313 314 316 316 317 316 317 318 320 322 325 331 333 332 333 332 330 329 329 329 329 329 328 328 328 327 327 327 326 326 325 324 323 323 322 321 321 321 320 320 317
312 312 313 314 313 313 312 312 314 313 314 315 315 316 316 318 318 320 324 325 327 330 331 332 332 332 329 327 329 330 330 329 329 328 328 327 327 327 327 325 324 322 321 321 321 320 320 320 320
313 311 311 312 313 312 313 309 310 313 313 314 315 315 316 317 319 320 318 318 319 320 326 331 333 333 332 331 327 328 328 328 326 329 329 328 328 328 328 326 326 323 322 321 321 320 320 320 319
310 307 307 308 311 312 309 307 308 313 313 313 313 314 315 316 317 318 319 319 319 320 323 327 333 333 332 332 330 329 330 330 329 330 331 331 329 328 326 326 325 325 323 322 321 321 320 320 319
308 306 309 310 311 312 311 310 309 313 313 314 314 314 315 315 316 316 317 318 319 318 320 324 329 332 332 332 331 331 330 330 331 331 330 331 331 329 326 326 326 325 325 323 322 322 320 321 320
310 309 310 310 311 312 311 310 308 313 313 313 314 314 314 314 315 315 315 316 316 317 317 321 323 327 330 332 332 332 332 332 331 331 331 331 331 331 330 327 326 326 326 325 324 321 320 320 319
308 311 312 311 311 312 311 309 309 312 312 312 314 314 314 314 314 314 315 315 315 315 316 317 319 321 326 330 332 333 332 332 331 331 331 332 332 332 331 329 327 327 326 327 326 324 321 319 319
311 311 311 310 311 312 310 309 307 308 311 312 312 313 313 313 314 314 313 313 315 315 315 315 316 317 319 324 326 330 330 331 331 331 331 331 331 330 330 329 328 327 327 326 327 326 325 321 319
310 309 310 310 309 308 308 306 305 306 309 312 312 311 311 312 313 315 314 314 314 314 315 316 316 315 316 318 324 328 331 331 332 332 331 331 331 332 332 331 329 328 329 329 326 325 326 324 323
312 309 310 310 308 307 307 306 306 307 306 306 309 310 314 314 314 315 315 315 315 315 315 315 315 315 315 317 320 323 324 327 326 328 330 331 332 332 329 328 328 328 328 326 324 326 325 324 324
310 310 310 310 308 310 309 307 306 305 307 308 308 311 312 313 314 314 314 314 314 314 316 315 315 315 314 315 318 321 323 325 328 329 330 331 331 331 329 327 327 328 329 328 325 326 326 326 324
308 308 306 307 305 306 306 305 304 305 308 308 308 313 314 315 315 316 316 316 315 314 314 314 314 315 315 314 315 318 321 323 325 325 327 328 329 329 329 328 327 326 326 327 328 327 325 324 324
307 306 307 307 307 306 306 306 305 306 307 308 309 313 313 314 315 314 314 314 314 314 314 314 314 313 314 315 315 315 317 322 324 324 325 325 326 327 327 326 325 324 324 325 326 326 326 323 323
307 306 306 307 307 307 307 309 308 308 307 309 312 312 313 313 313 313 314 314 314 314 314 315 314 315 314 314 313 314 314 315 317 319 321 322 322 321 320 319 319 321 322 323 323 321 321 321 321
310 308 306 306 295 305 306 307 307 305 306 310 310 312 313 313 314 314 313 313 313 314 314 314 314 314 314 314 314 313 313 313 313 313 313 313 313 313 313 313 313 314 314 314 315 315 317 317 317
309 308 309 306 306 306 306 308 308 308 308 308 308 310 312 313 313 313 313 313 314 314 314 314 314 314 314 314 314 314 314 313 313 313 313 313 313 312 312 312 312 312 313 313 313 313 313 313 312
309 310 308 308 307 309 307 308 305 308 308 308 310 311 312 312 313 313 313 313 313 314 314 313 314 314 314 313 313 314 314 313 313 313 313 313 313 313 313 312 312 312 312 312 312 312 312 312 312
308 308 307 310 308 306 308 309 306 306 307 309 310 310 311 311 312 313 313 313 313 313 313 313 313 313 313 313 313 313 314 313 313 313 312 312 312 312 312 312 312 311 311 311 311 311 311 311 311

GFSSGP_850_thetae_078.txt.gz
Theta_e
317 317 318 319 319 311 315 318 317 318 318 318 320 318 317 324 320 317 330 332 331 325 330 331 331 321 316 313 311 311 316 314 314 330 330 333 331 328 318 312 310 317 320 324 328 322 314 311 309
316 317 317 321 315 314 313 312 319 316 319 324 324 326 326 328 332 330 331 330 326 328 330 331 327 320 317 313 311 310 310 311 313 329 331 332 327 322 313 311 312 319 327 329 328 324 316 314 316
316 316 319 312 309 314 313 313 315 316 324 319 322 325 327 328 329 330 332 328 326 330 331 329 325 319 318 318 317 315 312 310 314 328 330 327 318 314 310 310 316 326 330 328 328 327 324 319 323
315 319 316 313 315 314 314 314 315 316 317 318 323 324 329 330 328 330 330 329 328 331 331 329 328 319 318 321 322 319 317 314 311 321 324 316 311 309 308 309 311 327 327 322 327 321 321 324 325
317 319 313 314 315 314 313 315 316 315 316 319 322 323 329 329 330 330 330 330 330 331 330 331 333 326 319 319 323 322 320 318 316 314 313 313 311 309 308 307 307 314 316 324 324 325 323 325 325
317 316 313 315 315 313 315 316 316 315 316 319 322 328 330 331 330 329 330 330 330 331 331 332 333 331 325 320 319 323 323 321 319 318 317 317 315 311 309 307 306 308 309 315 325 319 320 318 318
315 311 314 314 314 316 316 317 315 314 315 318 323 324 328 331 333 329 330 330 330 330 330 331 331 331 329 326 320 321 324 323 322 320 319 318 317 314 312 309 307 306 308 318 313 316 318 319 320
319 311 315 313 313 315 313 317 316 316 316 317 322 319 325 328 333 331 330 330 330 330 329 328 329 330 329 328 326 322 323 324 323 322 322 319 317 315 313 311 309 308 308 313 309 311 312 315 316
317 312 313 314 312 315 313 314 315 315 316 317 321 318 320 326 334 334 333 331 331 330 330 329 328 329 329 329 327 326 324 324 324 324 323 321 319 318 316 314 312 311 309 309 309 309 311 313 312
313 311 313 312 311 313 313 315 315 315 315 316 317 317 319 327 332 334 335 335 334 332 333 332 330 328 329 329 328 327 326 325 325 325 324 323 321 320 319 317 316 314 313 313 311 311 311 312 313
312 313 312 314 314 314 314 314 315 314 314 316 317 317 319 325 330 332 332 334 333 334 335 335 333 331 328 328 329 328 327 326 326 325 325 324 323 322 321 320 319 318 318 317 315 314 313 313 313
314 312 312 314 314 314 314 314 313 314 316 315 316 316 317 323 324 325 326 328 332 332 332 333 333 333 332 329 328 329 328 327 327 326 326 325 325 324 323 322 321 321 321 320 319 318 317 316 315
312 311 313 314 314 313 314 313 313 313 315 315 316 316 317 319 320 322 326 329 329 330 329 330 330 330 332 332 329 329 329 328 327 327 326 326 325 325 325 323 323 323 322 321 320 320 320 320 318
311 311 312 313 312 313 312 311 313 312 314 314 315 315 316 318 318 320 323 325 328 329 329 330 331 330 330 329 330 329 329 328 328 327 327 327 327 326 325 325 324 323 322 321 320 320 320 319 319
311 310 310 311 312 311 312 309 309 312 312 313 314 314 315 317 319 319 318 319 321 323 328 330 331 332 331 331 329 328 328 329 329 328 328 328 328 327 326 326 326 325 323 321 320 320 319 319 319
309 305 308 308 311 311 308 306 307 312 312 312 313 314 314 315 316 317 318 319 320 322 323 326 330 331 332 332 332 331 328 328 327 327 327 327 329 328 328 326 325 324 324 322 321 320 320 320 319
306 306 307 309 310 311 309 308 309 312 312 312 313 313 313 314 315 315 316 317 318 319 320 321 325 327 331 333 333 332 331 330 329 329 329 329 329 330 329 327 325 324 324 324 322 321 320 320 320
308 308 308 308 310 311 311 309 308 312 311 313 313 314 314 314 315 315 315 315 316 317 319 320 321 324 328 332 333 332 332 331 331 330 330 329 330 330 330 328 327 326 325 325 325 324 322 321 319
306 308 310 310 310 311 310 309 308 312 310 311 313 313 313 313 313 313 313 314 314 314 316 317 318 319 324 328 332 333 332 331 331 331 330 330 330 331 330 329 329 327 325 325 325 326 324 323 320
309 310 311 309 310 311 308 308 307 308 309 310 310 311 311 311 311 311 313 313 313 314 314 314 315 316 317 322 324 329 329 330 330 331 330 331 330 330 331 331 331 329 328 326 325 326 326 324 321
309 309 309 310 308 306 305 305 304 306 307 308 308 308 310 311 311 312 313 313 313 312 313 314 314 314 315 318 322 326 329 329 330 329 330 330 331 331 331 331 331 330 329 329 328 328 326 326 325
310 308 308 308 308 308 305 305 306 305 304 305 308 310 311 312 313 313 313 313 314 314 315 314 314 314 314 314 318 320 322 324 322 324 326 328 330 330 331 331 331 330 329 329 328 327 327 327 326
310 308 308 308 307 308 308 306 305 303 307 305 307 311 312 313 314 314 314 314 314 314 314 314 314 314 314 313 313 315 319 322 324 325 326 327 328 329 331 331 329 329 328 327 325 327 328 327 326
306 306 305 305 304 305 306 304 304 305 307 308 308 311 312 313 313 314 314 314 314 314 314 314 314 313 314 314 314 313 314 316 320 323 325 326 327 328 329 329 327 326 326 327 327 326 326 326 327
306 305 306 307 306 305 305 305 304 306 306 308 308 310 312 312 313 313 313 313 314 314 314 314 314 314 314 314 313 313 314 316 318 320 323 325 327 328 328 328 326 325 325 324 323 323 324 325 325
306 306 306 306 305 306 306 308 306 305 305 309 310 311 312 313 313 313 313 313 314 314 314 314 314 314 314 314 314 313 312 313 313 315 316 318 320 320 321 323 323 324 324 322 321 322 321 320 320
309 307 304 305 294 305 305 306 306 306 307 308 310 311 312 312 312 312 313 313 313 313 313 313 314 314 314 314 314 314 313 313 313 312 312 312 313 313 313 313 313 314 315 315 316 318 318 319 318
308 305 308 304 303 305 305 306 305 309 309 308 308 310 311 312 312 313 313 313 313 313 313 313 313 313 313 313 313 313 313 313 313 312 312 312 312 312 312 312 312 312 312 312 313 313 314 315 315
308 308 306 307 306 307 306 306 303 308 307 307 308 310 311 311 312 312 312 312 312 312 312 312 312 313 313 313 313 313 313 313 313 312 312 312 311 311 311 311 311 311 311 311 311 312 312 312 312
307 308 307 308 307 305 307 308 306 306 307 308 309 309 310 311 312 312 311 311 311 311 311 311 311 311 311 311 312 312 312 313 313 313 312 312 311 311 311 311 311 311 310 310 310 310 310 311 311

GFSSGP_850_thetae_084.txt.gz
Theta_e
322 319 318 320 323 323 323 323 324 325 323 320 329 328 328 326 326 329 332 332 331 325 327 327 327 326 322 318 315 319 327 332 331 333 328 319 312 312 314 316 325 328 321 322 314 311 311 313 319
320 318 318 321 325 322 321 322 326 324 322 324 324 325 325 329 333 331 332 331 329 326 329 326 320 322 318 315 315 318 330 330 333 332 321 313 310 311 316 328 328 329 324 319 316 318 321 326 327
318 317 320 324 323 322 320 320 326 322 321 321 324 326 326 329 330 333 332 330 327 326 331 325 317 315 312 310 310 314 330 332 333 329 317 310 309 310 312 318 325 328 324 320 314 316 325 326 325
316 317 318 324 323 319 319 319 322 324 319 319 325 325 330 327 332 332 331 328 327 331 332 324 318 316 315 314 312 312 322 317 322 318 314 310 308 309 313 316 316 327 328 320 322 326 325 322 322
316 319 322 321 320 318 316 319 321 324 321 321 322 325 329 326 330 331 329 326 329 331 330 321 318 319 320 318 316 314 313 314 315 314 313 311 309 308 309 311 310 322 325 322 326 325 323 320 316
318 320 323 322 320 318 319 318 320 321 319 321 323 325 329 326 330 330 326 327 331 330 326 321 319 319 321 322 320 318 317 316 316 316 315 314 311 309 309 308 311 326 326 325 324 322 320 316 315
320 322 323 321 320 320 320 317 319 319 319 321 323 323 328 332 329 329 326 329 332 331 329 330 323 320 319 321 322 321 320 319 318 318 317 315 313 311 309 309 308 322 327 325 320 318 317 317 317
318 320 320 319 320 320 319 317 316 318 319 318 323 321 326 333 329 330 327 329 332 331 330 332 332 326 321 319 322 323 323 322 321 321 318 316 315 312 311 310 309 311 326 322 313 314 315 316 317
318 322 322 320 319 319 316 319 314 315 317 320 322 320 326 327 329 330 328 329 331 331 331 331 332 331 327 323 321 322 323 323 322 322 321 319 317 315 314 312 312 312 318 312 311 312 313 314 314
319 321 322 319 318 319 317 318 317 317 317 317 319 318 324 329 329 329 329 330 330 330 330 330 331 331 330 328 325 323 323 323 323 323 323 321 320 318 317 316 315 314 315 314 312 312 312 313 314
316 320 317 315 315 316 317 316 315 317 318 318 318 317 320 329 333 331 330 330 329 329 329 329 329 330 330 329 328 327 325 324 324 324 324 323 322 321 319 319 318 317 317 317 315 314 315 315 315
317 313 314 314 314 314 317 315 316 316 317 315 316 316 317 325 332 331 331 331 329 329 329 329 329 329 328 329 329 328 328 327 326 325 324 324 324 323 322 322 321 320 320 319 318 318 318 319 319
316 314 313 312 313 313 314 314 316 315 314 314 315 315 317 325 332 332 332 331 329 330 330 330 331 331 331 329 329 328 328 328 327 327 326 325 325 324 324 323 323 322 321 320 319 320 319 319 319
312 314 313 312 312 312 314 313 312 312 313 313 314 315 316 321 328 331 329 329 328 330 331 332 331 332 332 331 331 330 329 328 328 328 327 327 326 326 325 324 324 323 322 321 320 320 320 319 319
311 315 314 312 312 313 312 313 314 310 311 311 312 314 315 316 321 321 322 324 324 325 329 328 327 329 329 329 328 328 328 329 328 328 328 328 327 327 327 326 325 325 324 323 322 320 319 319 319
312 314 316 311 312 312 311 316 309 310 310 311 312 312 313 314 316 319 322 322 324 325 323 326 326 327 327 329 329 328 328 329 328 327 327 328 328 328 328 327 327 325 324 323 322 321 321 320 319
312 314 313 309 311 312 312 314 311 310 311 313 313 312 312 312 313 315 317 319 321 322 325 325 326 327 328 328 329 330 330 330 330 330 329 328 327 327 327 327 327 326 325 325 324 322 322 322 321
314 312 310 311 312 312 313 314 313 312 311 314 313 313 312 312 312 312 313 314 315 318 320 323 326 326 328 330 331 332 331 331 331 331 330 330 329 328 328 328 328 326 326 325 325 325 323 323 322
313 311 312 310 311 313 313 314 314 313 311 313 312 311 310 311 311 311 312 313 313 314 316 318 321 324 328 329 331 332 331 330 330 330 330 330 330 330 330 330 330 328 327 326 327 327 326 325 324
311 311 312 312 310 312 312 314 314 309 309 308 308 308 308 309 310 310 310 311 312 312 313 314 318 320 323 325 327 328 329 329 330 330 329 330 331 331 331 333 332 330 329 328 328 327 327 327 327
311 312 312 313 309 309 309 313 310 308 309 309 309 308 309 309 310 311 311 312 312 311 311 312 313 314 316 320 323 324 326 326 326 327 327 326 329 330 330 332 329 328 327 328 328 328 328 327 327
312 310 311 311 313 313 309 312 311 309 311 311 311 311 310 310 311 312 312 313 313 312 311 311 311 312 312 312 315 318 320 322 324 327 327 328 328 328 329 330 331 327 326 327 327 326 327 326 326
311 310 311 311 313 313 312 312 312 309 313 312 311 310 310 310 310 311 312 312 312 313 313 313 313 312 312 311 312 313 315 322 322 325 325 325 325 325 330 328 326 325 326 326 326 326 326 326 325
308 310 310 311 312 312 312 312 311 310 313 312 310 309 309 309 310 311 312 312 312 313 313 313 313 313 313 313 313 313 314 315 317 318 321 323 324 325 326 326 325 325 325 325 324 328 325 325 325
309 313 312 313 313 312 306 309 311 308 311 312 311 310 309 309 311 312 312 313 313 313 313 313 313 313 313 313 313 313 313 313 314 314 315 316 317 317 320 322 323 324 324 325 325 324 324 323 324
311 312 314 315 312 311 306 311 311 307 307 310 310 309 309 309 311 311 312 312 312 312 313 313 313 313 312 312 312 312 312 312 312 312 311 312 312 312 312 313 314 315 316 318 320 323 321 324 322
310 310 309 309 302 313 311 310 308 307 309 309 309 309 309 309 310 311 311 311 311 312 312 312 312 312 312 312 312 312 312 312 312 312 312 312 312 311 311 311 311 311 311 311 312 312 313 315 317
309 309 311 310 316 315 309 310 313 310 311 311 309 310 309 309 310 310 310 310 311 311 311 311 311 310 309 308 308 307 307 306 307 307 308 309 310 310 311 311 311 311 311 310 310 310 310 311 311
308 309 308 310 311 318 313 311 310 311 312 311 310 309 309 308 309 309 309 309 310 310 309 309 309 308 308 307 306 305 305 305 305 305 306 306 307 308 308 309 309 309 309 310 310 310 310 309 309
308 310 310 312 311 308 311 314 308 312 312 311 309 308 308 308 309 309 309 309 309 309 308 308 308 307 306 305 304 304 303 303 303 303 303 303 303 304 304 306 307 307 308 308 308 308 308 308 308

GFSSGP_850_thetae_087.txt.gz
Theta_e
323 322 322 323 326 324 324 326 329 329 329 327 330 328 327 327 327 337 335 336 337 337 332 325 321 318 315 316 319 329 333 329 331 324 318 312 312 312 315 327 323 317 313 314 312 312 313 322 329
319 322 323 323 326 322 321 324 327 325 324 329 328 326 325 332 334 335 335 336 335 334 333 326 325 322 318 318 317 329 332 332 331 321 312 311 312 319 326 329 328 315 316 315 320 325 327 325 327
319 320 323 325 325 322 321 322 326 326 324 325 326 326 325 330 334 336 336 335 334 333 335 322 319 315 313 313 321 331 332 332 330 321 312 310 310 312 322 329 328 324 317 316 319 327 325 325 325
320 322 321 324 324 321 321 322 324 326 322 322 325 325 328 332 335 336 334 334 333 336 336 319 317 313 311 312 316 329 331 330 325 317 311 309 309 310 313 321 329 327 318 325 325 325 323 324 324
318 322 324 325 323 320 320 322 323 325 322 323 322 324 330 333 335 335 334 333 334 336 338 319 317 316 315 313 316 329 328 322 316 314 311 309 309 309 309 312 323 326 322 326 325 324 323 318 320
320 322 324 325 322 320 321 322 324 323 321 322 321 323 330 333 335 334 333 334 336 337 332 319 318 320 320 317 315 320 317 315 315 315 314 312 310 309 309 314 327 327 325 325 324 317 315 314 315
321 323 325 324 322 321 321 322 322 321 320 321 323 323 330 334 335 333 333 335 336 335 336 321 319 321 322 321 319 317 317 317 317 317 315 314 312 310 309 311 324 327 325 324 321 317 315 314 314
320 323 324 323 322 321 321 320 320 320 320 321 324 322 327 334 335 332 333 335 335 335 338 331 323 320 319 322 322 321 320 319 319 319 317 315 313 312 311 310 311 321 325 320 316 314 314 313 313
318 322 323 322 320 321 320 320 319 318 320 322 323 323 328 335 334 332 333 335 335 336 338 335 332 331 329 321 321 322 322 321 321 321 319 317 316 315 315 313 312 318 320 316 313 313 313 313 313
320 324 323 322 320 321 320 320 319 318 319 319 321 325 333 334 334 332 332 334 335 335 335 332 333 333 332 330 322 322 323 323 322 323 322 320 319 318 318 315 314 314 315 314 313 313 313 315 317
320 323 321 319 318 320 320 319 319 319 319 319 319 322 332 334 334 333 332 333 334 335 335 330 330 332 332 331 327 328 323 323 323 324 323 323 321 320 319 319 317 316 317 318 316 315 316 317 321
319 317 318 317 316 318 319 318 318 319 318 317 318 320 329 332 333 333 333 333 333 335 335 330 329 329 332 332 330 328 328 326 325 324 324 324 323 322 322 322 322 320 320 320 319 319 318 319 319
319 317 316 315 315 318 317 318 318 318 317 315 315 319 325 330 331 331 332 332 333 334 334 334 329 328 329 330 330 331 328 328 327 326 325 325 324 324 323 323 323 322 322 321 320 320 319 319 319
317 317 316 315 315 314 317 316 315 316 314 314 315 318 322 327 330 331 331 332 332 333 334 334 332 330 330 329 329 329 329 330 328 328 327 327 326 325 325 324 324 324 323 322 321 320 320 320 319
316 316 316 315 315 315 314 316 316 313 312 314 314 317 320 324 328 330 331 331 332 333 334 334 334 330 331 332 332 332 330 330 329 328 328 328 327 327 326 326 325 325 325 324 323 322 320 320 319
316 317 317 315 315 314 314 318 316 312 312 314 314 315 317 320 326 329 330 331 331 333 334 335 334 327 328 330 330 331 330 329 328 328 328 327 328 328 328 327 327 326 325 324 323 322 321 321 321
315 317 316 313 314 315 314 317 313 313 313 314 314 314 314 315 317 325 328 330 331 332 333 334 333 324 326 327 328 329 329 330 330 329 329 328 327 327 328 327 327 327 326 325 324 323 323 322 322
316 316 315 316 314 314 315 315 314 313 314 315 315 315 314 314 313 313 314 321 328 330 331 333 333 328 326 328 329 329 329 331 335 334 331 330 330 329 328 328 328 328 326 325 324 324 324 324 324
316 315 314 314 313 315 315 315 315 314 314 315 315 315 314 313 311 312 312 312 313 316 328 330 332 333 325 327 330 330 329 329 333 335 332 330 330 331 331 332 331 329 328 328 327 326 326 326 326
315 314 314 313 313 314 315 315 315 314 314 313 313 313 312 312 311 310 310 311 312 312 313 320 328 331 332 326 326 328 328 328 329 331 330 330 335 335 331 329 328 328 328 328 328 329 329 328 327
313 314 314 314 312 312 313 314 315 311 312 312 312 311 311 312 312 312 311 310 310 311 311 312 316 325 329 329 325 325 330 330 328 325 326 326 329 330 330 329 328 327 327 326 326 327 327 327 327
313 313 314 314 314 313 312 313 315 313 313 314 314 313 313 312 312 313 312 312 312 311 311 310 311 312 316 323 328 323 324 326 327 330 325 330 329 329 329 328 326 326 325 325 325 326 325 326 325
313 313 314 315 315 314 314 313 315 312 314 314 314 313 312 312 312 311 311 312 312 312 311 310 310 310 311 312 320 326 326 328 326 327 325 326 326 325 326 326 325 323 324 324 325 325 324 326 325
311 313 313 314 315 313 314 313 314 312 314 314 313 312 312 311 311 311 311 311 312 312 313 313 312 311 311 311 312 319 322 321 320 322 319 323 326 326 326 324 323 325 325 324 324 323 323 324 325
313 313 313 313 314 313 310 312 313 311 314 314 313 312 311 312 312 311 311 311 311 312 312 312 313 313 313 313 313 313 313 313 312 312 312 312 312 312 313 314 315 318 319 320 322 322 322 322 321
313 313 315 315 315 313 308 312 313 312 313 314 312 312 312 311 311 311 310 311 311 311 312 312 312 312 312 312 312 312 312 312 312 312 312 311 311 311 311 311 311 311 311 311 311 312 313 315 318
313 312 312 311 308 315 312 312 311 309 312 312 312 311 312 312 311 310 310 311 311 312 312 312 312 312 312 312 311 311 309 309 308 308 308 308 308 309 309 310 310 310 311 310 310 310 311 310 310
311 311 311 313 319 319 312 313 313 310 312 312 311 312 312 311 310 309 310 311 311 311 311 311 310 309 308 308 307 306 306 305 305 305 305 305 305 305 306 306 307 307 308 308 308 309 309 309 309
310 311 311 312 314 319 315 313 312 312 313 313 312 313 312 311 310 309 310 310 310 309 309 308 308 307 307 306 305 305 304 304 303 303 302 302 302 302 302 301 301 301 301 302 303 304 305 306 306
311 312 311 313 313 311 314 315 311 313 312 313 313 312 311 310 309 308 309 308 308 307 307 307 306 305 304 303 303 302 301 301 301 300 300 300 300 299 299 299 299 299 299 299 299 300 300 301 302

GFSSGP_850_thetae_093.txt.gz
Theta_e
322 322 322 322 321 317 322 327 326 327 324 325 325 328 332 334 336 336 336 335 335 331 323 320 320 320 322 326 331 330 327 315 313 311 312 316 326 319 313 313 313 315 317 319 319 323 327 327 327
320 322 322 322 319 320 316 323 322 324 327 325 325 329 330 334 335 336 336 336 335 332 321 318 319 320 320 329 333 333 326 317 310 313 328 327 330 324 317 314 327 330 331 324 325 326 327 326 326
320 322 321 319 318 318 319 321 321 325 326 325 324 328 332 334 333 336 337 335 334 332 323 319 317 318 322 330 333 333 327 319 311 315 325 327 331 327 323 315 317 327 325 323 323 319 319 317 318
322 321 321 317 319 317 317 320 321 321 323 324 325 327 335 335 335 336 336 335 334 330 327 325 320 318 323 331 332 331 325 316 311 317 317 318 324 328 326 320 319 323 325 317 316 316 316 314 318
320 320 318 319 320 317 317 323 322 319 321 323 326 330 335 335 336 335 334 332 332 326 319 321 312 312 319 328 331 327 320 315 311 310 310 311 314 323 324 319 326 326 323 316 313 312 313 315 314
319 320 318 319 318 317 319 323 322 319 321 326 329 333 335 335 335 334 333 334 334 323 316 314 312 311 317 332 331 324 317 315 313 311 311 310 310 314 327 326 326 326 323 316 312 312 312 313 313
318 316 318 319 316 318 319 322 320 319 319 321 327 329 335 334 334 333 333 335 333 323 317 317 316 314 315 326 328 319 316 316 315 313 312 311 310 316 327 326 325 323 317 314 313 313 313 313 313
319 316 319 318 315 318 319 321 319 319 321 323 325 329 333 334 333 333 335 335 332 319 317 319 320 319 317 317 319 318 318 319 317 315 314 312 311 311 314 321 321 316 314 313 313 313 313 313 313
318 316 318 319 317 318 320 318 318 320 322 321 326 325 330 334 333 334 335 336 334 321 318 319 318 320 321 321 321 321 320 320 321 319 317 316 315 315 314 313 314 316 316 314 314 314 314 314 314
316 315 318 317 316 316 318 319 318 320 321 330 330 330 334 333 333 335 335 336 335 325 325 323 321 319 318 320 321 322 321 321 322 322 321 320 319 318 318 317 316 317 318 317 316 316 316 317 317
316 316 318 317 318 320 318 318 318 319 317 328 334 335 334 332 333 334 335 335 334 330 332 329 329 329 327 322 320 321 322 322 323 323 323 322 321 320 321 321 321 320 321 320 319 318 318 318 318
317 317 317 317 317 319 318 318 317 318 317 319 324 332 333 332 332 334 335 335 334 332 331 339 333 333 329 329 326 324 324 323 323 323 323 323 323 322 322 322 323 323 323 323 321 320 320 319 318
315 316 317 317 317 319 318 317 316 316 318 320 323 328 330 332 331 331 331 332 333 333 333 331 334 332 333 331 328 328 327 326 326 325 324 324 324 323 323 323 323 323 323 323 323 322 321 320 319
316 316 315 315 315 316 315 315 317 315 316 323 324 325 327 331 332 332 332 333 333 333 334 332 332 329 331 332 332 332 332 333 329 326 326 326 325 325 325 324 324 324 324 324 324 323 322 321 321
315 313 313 314 315 315 315 314 313 315 315 317 325 325 328 331 332 333 333 332 332 332 333 333 333 331 329 331 330 333 334 332 330 332 328 326 327 326 326 326 326 325 325 324 324 323 322 322 321
314 312 313 313 314 314 313 314 313 314 315 314 316 321 327 329 330 331 331 331 332 332 333 333 332 331 330 329 328 329 330 332 330 331 331 330 327 327 327 326 326 326 326 326 325 323 322 322 321
313 312 314 313 313 312 312 313 311 312 312 313 313 316 319 322 327 329 330 330 331 331 332 332 333 332 330 329 326 330 332 332 330 328 331 331 330 329 327 326 327 326 326 326 326 325 324 323 322
311 313 313 312 312 312 310 313 310 312 311 312 313 315 318 320 324 328 329 330 330 330 331 331 332 333 333 331 328 329 333 331 332 330 333 332 331 329 329 329 328 326 326 327 325 326 324 326 326
311 312 312 311 311 312 310 310 309 312 313 311 312 314 315 314 316 324 327 329 330 331 331 331 332 334 334 332 327 328 331 331 332 333 330 328 328 327 328 327 327 327 327 325 324 324 324 324 324
311 311 311 311 311 312 311 312 310 310 311 313 313 313 313 313 313 315 319 327 329 330 331 332 332 333 332 331 329 325 332 332 330 328 327 326 327 327 326 326 325 325 325 324 325 326 326 323 322
309 310 310 310 311 311 310 309 312 310 311 312 312 312 312 312 312 312 312 312 315 324 329 330 331 332 332 331 332 329 330 329 327 327 327 326 326 325 325 324 324 323 323 323 323 322 322 322 321
310 311 311 310 309 308 307 306 307 307 308 310 311 311 312 312 312 312 312 311 311 310 311 322 329 330 331 331 330 330 328 327 325 325 324 324 323 323 324 323 322 322 323 322 322 321 321 321 322
311 311 310 310 310 308 310 305 304 306 309 308 310 312 311 312 312 312 312 311 311 311 310 309 318 329 329 329 328 327 325 324 323 324 322 323 322 323 323 322 324 324 324 324 322 320 321 320 319
310 311 310 310 309 309 308 305 305 307 309 308 311 312 312 312 312 312 311 311 312 312 310 309 310 322 327 328 327 327 324 323 322 321 321 320 320 319 319 319 319 317 316 315 313 313 314 312 314
310 308 309 310 309 308 306 305 306 306 307 309 310 311 311 312 311 311 311 311 312 313 311 308 309 315 323 327 327 325 323 321 320 315 312 312 312 311 310 310 310 310 309 309 308 308 307 307 307
309 308 308 310 311 309 305 309 309 308 311 312 312 312 311 311 310 310 310 310 311 312 314 313 311 311 313 318 320 322 316 311 311 310 310 309 308 307 306 305 304 303 302 301 300 300 300 300 300
309 310 309 307 298 307 305 306 308 309 309 310 310 311 311 311 311 310 310 310 310 311 312 313 314 314 314 314 312 311 310 309 307 306 305 304 303 302 301 300 300 300 300 299 299 298 298 297 297
309 308 309 306 306 308 307 307 306 308 310 308 308 310 311 311 310 309 309 309 309 310 310 310 310 311 310 310 309 307 305 304 303 302 302 301 300 300 300 299 299 298 297 297 296 296 295 295 295
308 307 308 309 307 308 306 306 304 307 310 309 309 311 311 310 310 309 309 309 309 309 309 309 309 308 307 306 305 304 303 302 301 300 300 299 299 299 299 298 298 297 296 295 295 295 294 294 294
308 308 308 308 308 308 309 308 309 306 309 310 310 310 311 311 309 309 309 308 308 308 307 307 306 306 305 304 303 302 301 300 299 299 299 299 299 298 298 297 296 295 295 294 294 294 293 293 292

GFSSGP_850_thetae_096.txt.gz
Theta_e
321 320 320 322 319 315 320 327 326 324 325 325 324 327 332 334 335 332 335 335 334 323 323 328 326 328 332 330 325 322 314 312 312 319 328 323 313 312 313 315 315 330 330 331 328 329 327 326 325
320 320 321 322 317 319 317 320 324 324 325 328 327 329 331 333 335 335 336 336 334 324 321 321 320 322 327 332 328 321 313 310 314 327 330 326 320 315 324 327 331 330 331 329 327 326 326 325 323
319 320 321 316 315 317 321 321 323 325 325 324 327 331 333 334 336 337 335 336 334 326 321 320 322 319 328 333 332 325 316 310 316 325 331 328 322 315 314 324 327 325 328 327 317 320 319 318 317
320 320 319 316 319 317 319 320 320 320 322 324 328 330 334 334 334 334 335 334 334 321 318 316 317 320 330 332 332 321 314 310 310 311 320 328 328 319 315 319 324 319 313 314 311 313 313 317 316
319 320 316 317 318 316 319 321 320 318 320 325 327 331 335 334 334 335 336 334 334 326 322 321 319 322 329 332 329 318 314 311 311 310 315 320 327 321 324 327 326 319 312 311 311 312 313 313 313
318 318 316 318 317 317 320 321 320 319 322 327 332 333 334 335 335 335 333 331 329 326 324 315 315 323 329 331 326 317 315 313 312 311 310 311 316 326 325 326 325 317 312 311 311 312 312 313 312
316 314 316 317 316 317 318 321 319 318 322 324 325 330 334 334 335 334 332 333 322 317 315 311 312 318 330 330 321 316 315 314 313 312 311 311 315 325 326 325 317 313 312 312 312 312 313 313 314
318 315 317 317 315 317 318 319 319 318 320 326 326 331 333 334 333 332 333 334 333 317 315 315 314 313 321 323 317 317 318 316 314 313 312 311 312 318 318 315 315 315 314 313 313 313 313 313 314
318 315 317 318 315 317 319 316 318 320 321 322 326 328 330 334 333 333 333 334 331 318 318 319 318 317 317 318 319 318 319 319 317 316 315 314 313 313 314 314 316 317 316 315 315 315 315 315 314
315 315 317 317 315 316 318 318 319 321 324 330 328 325 332 333 332 333 334 334 329 318 319 319 318 319 320 320 321 320 320 321 320 320 319 318 318 318 318 318 317 319 319 318 317 317 317 318 317
315 316 315 316 317 318 317 316 317 320 318 328 328 332 333 333 332 333 334 333 325 319 319 319 318 318 319 320 321 321 321 321 322 322 322 321 320 320 320 320 321 320 322 321 320 320 319 319 318
315 316 316 316 318 317 316 317 316 317 317 319 322 327 332 333 333 334 334 334 332 324 325 325 326 326 324 321 320 321 321 322 322 322 322 322 322 322 322 322 322 322 322 322 322 321 320 320 319
315 315 316 316 318 318 317 316 315 317 317 321 328 331 332 332 333 334 334 333 333 330 329 327 327 326 329 329 327 325 324 324 324 324 323 323 323 323 323 323 323 323 323 323 323 322 321 320 320
315 315 315 315 316 316 315 314 316 316 318 327 331 332 331 330 332 334 334 334 334 332 330 330 330 328 330 329 327 326 324 324 325 325 326 325 324 324 324 324 324 324 324 324 324 323 321 321 321
314 314 313 313 314 314 315 314 313 316 320 328 331 329 330 330 330 331 333 333 332 331 331 331 331 330 329 330 330 330 333 332 328 328 326 326 326 325 325 325 325 325 325 325 324 323 322 321 321
313 311 312 312 313 313 313 314 312 314 322 329 329 327 328 330 329 330 330 331 332 332 332 331 332 333 331 330 330 329 333 332 330 331 331 330 328 325 325 325 325 325 325 325 325 325 324 323 322
311 311 312 313 312 311 312 313 312 313 316 325 328 327 328 329 330 330 330 332 332 332 332 332 332 332 332 330 330 329 332 333 330 331 330 330 329 328 329 327 326 326 326 326 325 324 323 323 322
310 311 311 312 311 310 310 311 309 311 312 313 315 319 325 329 330 330 331 331 331 331 332 332 332 332 332 332 331 328 333 331 329 330 329 327 327 326 327 326 325 325 325 324 324 323 323 322 323
310 311 312 311 310 311 309 311 309 311 310 310 311 312 317 321 324 326 329 330 329 330 331 331 331 330 332 332 332 330 334 332 329 329 328 327 326 326 326 325 325 324 324 324 324 323 325 324 325
310 311 310 311 310 311 309 310 310 309 310 311 311 312 315 319 322 326 328 329 330 330 330 331 330 330 331 333 332 332 327 329 328 327 326 326 326 325 325 325 324 323 323 323 322 322 323 321 321
309 309 308 311 310 309 309 309 311 310 310 311 311 312 314 315 315 318 325 328 329 329 330 331 331 331 332 333 333 331 329 327 326 326 326 325 325 325 324 324 323 322 322 321 321 321 320 320 320
309 308 309 309 308 309 307 309 305 307 308 309 311 311 312 312 312 313 316 321 327 328 329 330 331 331 332 332 330 328 326 325 325 325 324 324 324 323 322 322 322 322 321 322 322 323 320 321 320
310 309 309 308 307 308 308 306 304 306 307 308 309 310 311 311 312 312 312 312 311 312 320 328 329 330 331 332 329 328 327 325 324 323 323 322 322 321 321 321 321 322 322 321 319 318 312 314 314
309 310 308 309 308 308 307 306 305 306 308 309 308 310 311 311 311 312 312 312 312 311 310 310 314 326 329 330 328 328 326 324 322 322 321 320 320 319 319 318 318 317 315 313 311 310 309 308 308
310 310 310 311 311 309 305 304 307 305 305 306 308 310 310 311 312 312 311 311 311 311 311 310 309 313 326 329 327 326 324 321 320 320 320 318 318 315 313 310 309 308 306 304 303 301 301 300 300
308 310 309 309 309 307 305 308 308 306 307 308 310 311 311 311 311 311 311 311 311 312 311 308 309 312 323 327 327 324 324 321 320 320 312 312 310 308 306 304 302 301 300 300 299 299 298 297 296
310 308 306 307 297 307 304 304 305 309 309 308 309 310 311 311 311 311 310 311 311 313 313 310 310 314 321 325 326 324 324 319 312 310 308 306 304 302 301 300 300 299 298 297 296 296 295 295 295
309 307 310 306 309 308 306 306 306 308 310 307 307 308 310 310 310 310 310 310 311 313 315 315 313 314 317 319 321 321 312 310 308 305 303 302 301 300 299 299 298 297 296 296 296 295 295 294 294
308 308 306 307 307 309 305 306 302 306 309 308 308 308 310 310 310 310 309 309 310 311 312 314 315 315 315 314 312 310 307 304 303 301 300 300 299 299 298 298 297 296 295 295 295 294 294 294 293
307 307 307 309 307 305 306 306 306 304 305 309 308 309 310 310 310 309 309 309 309 309 308 309 310 310 310 309 307 305 303 301 300 300 299 299 298 298 297 296 295 295 295 294 294 293 293 292 292

GFSSGP_850_thetae_102.txt.gz
Theta_e
321 319 320 321 315 315 320 324 322 323 323 326 325 326 329 331 330 328 334 333 330 325 328 329 332 332 327 319 312 311 312 312 311 311 313 313 314 319 323 328 329 330 329 326 327 316 314 313 312
321 318 320 321 316 318 318 316 325 321 328 328 327 329 330 332 334 335 335 333 325 322 328 330 332 331 328 318 311 311 313 321 318 313 316 319 328 318 329 329 329 328 328 326 318 312 312 312 312
320 319 320 313 312 317 316 319 321 324 326 322 330 330 331 334 335 334 335 331 323 325 330 327 328 328 329 320 313 311 320 331 329 319 312 316 329 327 327 330 330 326 328 327 318 312 313 312 313
318 319 317 315 318 316 316 319 321 325 323 325 330 330 332 333 334 334 334 330 323 324 324 322 322 329 331 320 314 311 314 328 330 322 317 316 327 328 319 319 312 312 312 310 311 311 312 312 313
318 319 314 315 317 314 313 321 320 317 320 326 326 331 332 335 334 334 334 330 324 322 321 322 320 330 331 320 314 311 310 315 323 326 319 315 327 328 322 316 311 311 311 311 312 312 312 312 314
318 316 315 317 317 314 318 321 318 318 322 328 331 332 333 335 334 333 333 331 331 323 318 320 322 330 331 319 314 312 311 311 314 315 314 317 326 324 318 315 313 312 312 312 312 313 313 313 314
316 313 315 315 315 319 319 319 316 319 324 326 331 329 332 334 335 333 332 331 331 320 318 321 324 331 330 319 314 313 312 311 311 311 315 320 325 320 315 314 313 313 313 313 313 314 314 314 314
317 312 315 315 313 320 316 319 317 321 319 328 328 327 332 335 335 334 333 333 332 324 321 320 328 329 329 318 315 314 313 312 311 311 313 315 316 315 315 316 315 315 314 315 315 316 316 315 315
316 313 314 316 314 315 316 315 316 319 325 325 326 327 328 335 334 333 331 331 331 326 322 318 325 329 328 317 316 316 315 314 314 313 313 314 315 316 315 316 318 318 317 317 317 317 317 317 317
314 314 316 315 314 314 315 316 316 321 325 326 327 328 331 334 333 331 329 324 320 320 315 315 321 328 326 317 317 318 317 317 316 316 315 316 317 318 318 318 319 320 320 319 319 319 318 317 317
314 315 314 316 316 316 315 314 318 320 322 324 325 326 333 334 332 331 330 327 319 316 313 312 315 321 319 318 318 319 319 319 320 319 318 318 319 319 319 320 321 321 321 321 321 320 320 319 318
316 314 314 314 314 315 314 316 316 320 319 321 322 321 331 333 331 330 331 330 324 316 316 315 315 317 318 319 320 319 320 321 321 321 320 320 320 320 320 321 321 321 322 322 322 321 321 320 320
315 314 314 314 314 315 315 314 315 318 316 317 323 326 329 332 331 331 330 331 328 317 318 317 317 317 318 320 320 320 320 321 321 321 321 321 321 321 322 322 322 322 322 322 322 322 321 320 320
315 314 315 314 313 315 314 313 315 316 316 320 323 326 329 331 331 331 332 332 328 318 318 318 317 317 317 318 319 320 320 321 322 322 323 322 322 323 323 323 323 323 323 323 323 323 323 323 322
314 314 311 312 314 313 313 313 312 314 317 324 326 326 328 330 331 330 331 332 331 321 318 319 320 322 323 321 322 322 323 324 324 325 324 324 325 324 324 324 324 324 323 323 324 324 324 322 321
313 311 312 311 312 312 313 314 312 314 318 326 328 328 329 330 330 330 331 331 331 331 324 324 326 327 326 325 325 325 326 325 324 326 327 327 327 327 324 325 324 324 324 325 324 322 321 321 321
322 318 310 311 310 310 311 313 311 313 320 326 328 328 329 330 330 330 330 331 332 331 331 329 328 328 327 326 326 327 325 325 326 326 326 325 325 325 325 325 324 324 323 322 322 321 321 321 321
325 319 311 311 311 310 310 310 309 310 322 325 327 328 329 329 328 329 329 330 331 331 332 331 330 330 330 329 329 329 328 327 327 326 325 325 325 324 324 323 323 323 323 322 322 321 321 322 320
323 317 313 310 310 311 310 310 310 309 311 322 326 328 329 329 327 329 329 330 331 332 332 331 332 331 331 331 331 329 328 327 326 326 326 325 325 324 323 323 323 323 322 322 322 321 320 320 319
313 322 318 310 309 310 310 311 308 306 308 313 320 325 327 327 326 326 328 330 330 330 329 330 331 332 332 332 331 331 329 328 327 325 325 325 324 324 323 323 323 322 322 321 320 319 319 319 318
316 314 312 312 309 308 309 310 309 307 308 310 311 316 321 323 322 323 325 327 328 328 329 330 330 331 332 332 332 330 329 329 327 325 324 325 324 323 323 323 323 323 321 320 319 319 319 319 318
314 309 310 309 311 313 307 312 308 306 306 306 310 311 312 313 317 320 322 325 327 328 329 330 331 331 331 332 332 331 328 327 327 325 324 324 324 323 323 322 322 321 320 319 319 320 320 319 317
316 308 309 310 309 309 308 308 310 305 306 305 307 311 312 312 311 312 315 321 323 326 327 329 329 329 330 332 332 330 329 327 327 325 323 323 323 323 322 321 320 319 319 319 320 319 317 310 305
308 310 309 308 307 310 310 307 308 306 305 306 308 311 313 313 311 311 313 318 321 323 326 328 329 328 329 330 331 330 328 328 327 325 323 323 322 322 320 319 318 318 318 319 317 311 305 301 300
311 310 313 313 309 312 304 305 311 307 303 306 309 313 313 312 311 311 313 316 319 322 326 327 328 328 329 329 330 330 327 328 328 325 323 322 321 320 319 318 317 317 312 308 304 301 299 298 297
310 312 311 313 311 311 303 307 309 305 307 308 308 310 311 312 312 311 312 314 315 316 320 323 325 326 327 327 329 330 327 327 327 325 323 321 319 317 317 316 311 308 303 301 300 298 297 296 296
310 315 309 307 299 306 305 304 304 304 303 306 307 307 310 311 312 312 312 312 312 312 312 312 311 311 312 318 326 330 329 327 326 323 322 319 317 317 316 310 305 301 300 298 297 296 296 295 294
310 310 312 310 308 308 305 304 308 306 307 306 306 308 310 310 310 311 310 310 311 311 311 311 311 311 310 310 313 327 330 325 325 322 322 315 318 315 309 303 300 299 298 297 296 296 295 294 294
311 312 310 310 308 310 309 308 301 306 306 307 307 310 310 310 310 309 311 311 311 311 311 311 311 311 310 311 313 323 327 325 324 322 320 318 314 308 302 300 299 298 296 296 295 295 294 294 294
311 312 313 314 312 304 307 309 304 302 302 305 305 308 309 310 309 309 310 310 311 311 310 310 311 311 311 313 319 324 323 323 322 320 319 311 306 301 299 298 297 296 296 295 295 294 294 293 293

GFSSGP_850_thetae_105.txt.gz
Theta_e
322 320 320 321 318 319 321 324 322 323 323 325 324 327 331 330 331 331 333 331 328 330 332 334 332 328 318 312 312 312 312 311 312 314 316 318 321 323 327 328 329 326 329 322 320 315 310 311 311
322 320 320 320 319 320 320 317 325 321 329 328 328 329 330 333 335 335 333 331 327 329 330 330 332 328 317 311 311 323 327 315 313 312 321 319 321 326 329 329 327 327 326 321 317 312 312 312 313
322 320 320 315 315 320 319 317 322 324 325 323 329 329 330 332 333 333 333 328 325 326 327 331 331 328 318 312 316 331 331 327 313 313 327 328 324 327 325 317 322 327 328 320 312 311 312 312 313
322 319 317 317 318 316 315 318 321 327 323 324 329 330 332 332 335 334 331 325 324 329 328 328 328 331 319 313 313 329 332 327 315 313 327 330 322 318 315 311 310 311 311 311 312 312 312 313 313
321 319 316 316 317 314 311 319 324 320 321 327 327 331 333 334 334 334 329 324 325 326 323 323 326 332 322 314 311 313 322 326 318 313 317 327 320 319 314 311 311 311 312 312 312 313 313 314 314
319 316 316 317 316 314 317 321 321 318 322 327 330 331 334 334 334 334 330 323 323 322 322 323 329 332 325 314 311 310 312 318 313 312 316 328 322 317 314 312 311 312 313 313 313 313 314 314 315
316 315 316 315 315 318 319 319 317 320 323 326 330 331 332 334 334 333 329 327 325 321 319 321 329 332 325 314 313 311 311 312 312 314 318 329 317 315 314 313 313 313 314 314 315 315 314 315 316
317 313 315 315 315 320 317 317 317 321 322 326 329 328 331 335 334 333 329 328 325 319 318 320 328 332 326 316 313 312 311 311 311 314 318 317 315 314 315 316 316 315 316 316 317 316 316 316 316
317 315 316 317 314 315 315 315 316 319 325 327 327 325 328 334 334 333 328 327 325 321 320 321 327 330 325 316 314 313 312 312 312 313 314 315 315 316 316 318 318 317 317 318 318 318 317 316 316
315 316 317 315 314 314 314 316 317 321 325 325 326 326 329 334 334 333 329 330 330 325 322 319 324 329 327 316 316 315 315 315 315 314 314 316 317 318 317 318 320 320 319 319 319 319 318 317 317
313 317 313 315 315 315 314 314 318 320 323 323 323 325 332 334 334 333 331 332 332 328 325 314 316 327 326 317 317 317 317 318 317 317 317 317 318 319 319 320 320 321 321 321 320 320 319 319 319
316 314 314 314 314 314 314 315 316 320 319 320 322 323 331 333 333 332 329 326 323 321 319 312 313 322 321 318 317 318 319 319 319 319 319 319 319 319 320 320 321 321 321 321 322 321 319 319 319
317 315 315 314 315 314 314 314 315 317 318 318 321 323 328 333 332 330 330 326 318 316 314 313 313 316 317 319 319 319 320 320 321 320 320 320 320 321 321 322 322 322 322 322 322 322 321 321 321
318 316 316 317 315 313 313 312 314 316 318 317 320 323 326 331 331 330 330 330 327 317 315 315 315 316 317 319 320 320 320 320 321 321 321 321 322 322 322 322 323 323 323 323 323 323 323 323 321
312 315 314 313 314 313 312 313 312 315 317 319 322 325 327 330 331 330 329 330 329 320 317 317 316 316 317 318 319 319 320 321 322 323 323 323 323 323 323 323 323 323 323 323 324 322 321 320 321
316 312 314 314 311 313 311 316 313 314 318 321 322 325 327 327 329 330 330 330 330 325 318 318 318 318 318 319 319 320 321 323 324 325 323 326 325 326 324 324 324 324 324 323 322 321 320 320 320
319 319 313 313 310 310 310 314 312 313 317 322 325 326 326 326 329 330 330 330 331 330 323 319 320 321 324 326 327 327 326 327 325 324 325 324 324 323 323 323 323 322 322 322 321 321 321 321 320
323 322 313 311 311 309 310 310 310 311 319 320 324 326 325 326 324 326 328 329 331 331 331 329 325 327 327 327 326 327 327 326 326 325 325 324 324 323 323 322 322 322 322 322 321 321 320 319 319
322 321 322 311 310 310 310 310 313 310 313 321 323 325 326 326 323 325 326 327 329 331 332 331 331 330 329 329 329 329 328 326 326 325 325 324 324 323 322 322 322 321 321 321 321 320 319 319 318
322 323 320 314 309 310 310 310 311 307 308 312 319 323 325 325 325 325 325 326 327 328 330 332 331 331 331 331 330 330 328 327 326 325 325 324 325 323 323 322 322 322 321 321 320 320 319 318 318
317 324 322 321 309 308 308 312 310 307 308 310 311 315 321 323 323 325 325 323 325 326 328 330 330 330 331 331 331 330 330 328 326 325 325 324 323 323 322 322 322 322 322 321 320 319 318 318 319
321 315 311 310 311 321 308 314 311 308 307 305 310 311 314 319 321 322 323 322 321 322 326 327 328 329 330 331 332 332 329 327 326 326 326 324 323 323 323 322 322 321 320 320 319 319 318 318 316
318 314 313 310 310 307 306 310 312 305 307 307 307 311 314 314 316 317 318 319 319 320 323 325 327 328 329 330 330 331 331 329 326 326 326 324 323 322 322 322 321 320 319 318 318 318 319 314 304
310 313 313 312 310 316 310 312 310 314 309 308 307 311 315 315 314 314 313 315 318 320 322 325 327 328 329 330 330 330 331 330 329 325 326 325 323 322 322 321 320 319 318 317 318 318 310 301 299
313 315 317 318 315 315 303 308 314 308 305 308 310 313 315 316 314 314 313 312 312 314 319 322 325 327 328 329 329 329 331 330 329 327 326 326 324 322 321 320 318 317 317 317 313 305 300 298 297
314 315 316 318 315 311 302 309 310 306 310 308 308 310 312 314 314 314 314 313 312 312 316 319 320 323 326 328 328 328 330 331 330 326 326 326 323 322 320 318 317 317 315 309 302 300 298 297 297
310 314 308 309 296 305 306 305 306 304 304 305 308 308 310 312 313 314 313 312 311 312 315 318 320 323 326 327 327 328 329 330 328 326 327 326 323 322 318 317 316 312 306 300 299 297 297 297 296
309 311 314 313 312 307 306 304 309 307 307 306 305 308 312 312 311 311 311 312 311 311 314 317 317 319 322 324 325 326 327 328 329 328 328 324 323 321 317 316 314 305 300 298 297 296 296 296 295
312 312 313 312 308 310 307 308 301 306 306 306 306 308 310 311 311 310 310 309 310 310 312 313 312 313 312 311 311 311 314 326 329 329 327 324 322 319 316 315 306 300 298 297 296 296 295 295 294
310 311 312 316 313 306 307 308 303 302 302 304 306 307 308 309 309 310 310 310 310 309 310 311 311 311 311 311 310 310 310 323 327 326 323 322 321 317 316 308 300 298 297 296 296 295 294 294 293

GFSSGP_850_thetae_108.txt.gz
Theta_e
322 321 320 320 324 325 326 329 328 329 328 326 328 331 334 334 334 336 334 329 334 334 334 331 330 322 315 312 312 312 313 313 322 324 325 325 327 330 329 328 329 322 316 319 313 310 311 312 312
322 320 320 321 325 325 326 327 330 328 330 329 330 332 333 336 333 335 333 331 334 333 336 332 328 317 311 318 322 315 312 312 315 315 322 328 329 329 327 328 327 318 317 322 318 314 313 313 313
322 320 322 323 323 326 324 325 329 329 327 328 330 331 332 334 333 335 334 332 333 334 334 332 328 316 313 322 330 325 315 319 330 329 327 328 328 324 320 320 318 313 317 315 315 313 314 314 313
321 320 319 323 322 322 321 324 326 329 324 327 330 331 333 333 333 334 331 332 333 331 332 331 328 318 314 328 333 328 322 317 328 330 325 327 318 311 311 310 312 313 312 312 313 314 314 314 313
321 321 323 322 322 320 318 320 326 328 326 329 329 332 333 332 334 334 330 332 333 332 332 329 330 322 315 325 329 330 326 319 328 329 327 317 316 312 311 311 312 312 313 313 313 314 314 315 314
322 320 323 324 322 319 321 323 327 325 325 329 329 331 334 333 334 332 331 332 333 331 330 329 332 326 315 314 322 328 329 317 322 327 327 321 316 314 312 312 313 313 314 314 314 314 315 316 315
323 323 324 322 321 321 323 322 325 324 325 327 330 331 333 333 335 331 330 330 328 327 330 331 332 329 316 313 314 320 322 315 315 325 328 319 315 314 314 313 314 314 315 316 315 315 315 316 316
319 322 322 321 322 322 322 320 318 323 324 325 330 329 334 334 334 331 325 325 324 324 326 330 332 330 316 314 313 314 316 314 316 321 324 317 315 316 316 316 316 316 317 317 316 316 316 316 316
318 323 324 322 320 320 320 321 317 319 326 328 329 327 331 333 334 330 325 326 323 320 321 330 332 331 318 315 314 313 312 312 314 315 316 315 315 316 318 318 318 318 318 318 318 317 316 316 316
323 325 324 318 318 318 317 320 319 323 326 327 328 324 329 333 333 331 328 328 321 320 321 327 331 329 319 315 314 313 312 312 314 315 316 317 318 317 319 320 320 319 319 319 319 319 318 318 318
320 325 320 316 316 315 316 316 319 321 325 323 326 327 330 334 333 333 330 330 325 321 321 321 326 328 321 316 315 314 314 314 314 315 316 317 318 319 320 320 321 321 320 320 320 320 319 319 319
320 319 319 315 314 315 316 315 318 320 321 321 325 324 329 335 333 333 331 330 329 324 322 320 320 325 325 316 317 317 317 316 316 317 318 318 318 319 320 320 321 321 321 321 321 320 319 320 320
320 316 316 314 314 314 314 315 317 318 319 318 322 324 329 334 333 332 332 331 331 326 323 317 315 321 321 317 317 318 318 319 319 319 319 319 320 320 321 321 322 322 322 322 322 322 322 322 321
320 318 316 316 316 316 315 315 314 318 318 317 322 327 328 332 332 331 330 331 329 324 320 314 313 319 320 318 318 319 319 320 321 320 321 321 321 321 322 322 322 323 322 322 323 323 323 321 320
316 321 321 317 314 315 314 317 316 316 318 323 325 328 328 331 331 331 329 327 322 318 315 313 313 316 318 318 320 320 320 320 320 321 321 322 322 322 322 323 323 323 323 323 324 322 320 320 320
319 320 324 323 314 312 317 322 318 315 321 322 325 329 328 329 330 331 329 329 329 323 316 316 315 315 317 318 319 319 320 320 322 323 324 323 322 322 323 324 324 323 324 323 322 321 320 321 320
322 326 325 325 314 315 316 322 315 313 320 322 325 327 329 330 331 331 330 329 329 328 320 317 317 317 316 317 319 319 320 321 324 325 324 322 323 323 323 322 322 322 322 321 321 321 320 320 320
325 326 323 326 317 313 317 317 318 312 316 320 323 326 327 329 328 327 330 330 329 330 327 318 318 319 319 320 323 325 327 327 327 325 324 324 324 323 323 322 322 321 321 321 321 321 320 319 319
324 327 328 321 312 314 318 318 317 316 312 318 321 324 326 327 326 328 329 330 330 331 330 328 320 319 322 325 327 328 327 326 326 325 325 324 324 323 322 322 321 321 321 321 320 320 320 319 317
325 326 328 326 316 315 318 317 316 316 313 313 317 321 324 326 325 323 325 329 329 330 330 330 330 329 327 328 328 328 327 327 326 325 324 325 324 324 323 322 322 322 322 321 321 320 319 318 317
323 326 327 327 313 312 316 324 324 320 312 312 312 315 321 325 323 322 322 325 326 327 329 330 329 329 330 330 330 330 329 328 326 325 325 325 324 324 323 323 322 322 321 321 321 320 319 318 318
324 319 322 322 321 327 319 329 327 325 323 313 312 312 315 321 320 323 321 321 322 324 326 327 329 330 329 330 331 331 330 328 327 325 324 323 324 323 322 322 322 321 321 321 320 319 318 318 317
321 315 316 313 318 313 318 316 324 317 318 317 314 313 315 315 316 318 319 318 318 319 322 324 327 328 329 330 330 331 331 330 329 327 326 325 325 324 323 322 321 321 321 320 319 318 318 318 316
315 314 314 313 316 322 321 316 325 323 319 320 316 313 313 316 316 315 317 318 318 318 318 319 323 326 327 329 329 330 331 331 331 329 328 327 326 325 323 322 321 321 320 319 318 317 318 317 302
315 319 319 320 321 327 311 316 321 320 316 317 318 316 316 315 316 316 315 316 316 317 317 318 321 323 325 327 328 329 330 330 330 330 329 326 325 325 324 322 321 320 319 318 317 317 315 302 298
316 319 320 325 322 322 305 316 318 313 310 313 310 311 312 313 314 316 316 315 315 315 314 317 319 322 324 325 326 328 329 330 330 330 329 329 326 326 324 322 320 319 318 317 317 313 301 298 297
315 318 315 314 305 312 314 313 313 312 312 309 310 309 309 312 312 313 314 315 314 313 312 312 316 319 323 324 325 327 328 329 328 330 330 330 328 327 324 322 321 319 318 316 312 301 298 297 296
316 314 317 315 321 321 319 313 316 314 312 313 311 311 313 310 310 311 312 313 314 313 312 311 310 314 320 322 323 325 327 328 328 329 331 332 328 327 324 322 321 318 316 311 302 298 297 296 296
314 315 315 316 314 319 319 319 313 314 313 311 310 309 308 309 310 311 312 311 311 311 312 311 310 314 318 320 322 324 326 327 328 329 330 331 329 327 323 322 320 316 314 303 299 297 296 295 295
313 314 315 318 317 315 311 317 309 309 308 307 308 308 309 310 310 310 310 310 310 310 310 311 310 313 316 319 320 321 323 322 325 326 329 329 329 327 323 321 317 315 308 299 297 296 295 294 294

GFSSGP_850_thetae_111.txt.gz
Theta_e
322 321 320 323 328 327 330 329 329 329 329 328 332 333 335 336 338 341 336 338 339 337 334 327 327 321 314 313 316 318 327 330 331 331 327 329 331 329 328 327 316 326 321 317 313 312 312 312 312
322 321 322 324 329 332 330 328 329 329 331 331 332 332 333 338 335 336 335 338 339 336 335 330 325 315 313 313 314 324 323 327 326 325 326 329 330 328 327 326 317 326 327 323 316 312 312 312 312
322 320 324 326 328 330 328 326 330 331 329 330 332 333 333 336 335 336 335 337 337 338 337 331 321 313 319 324 321 330 321 326 326 327 328 331 327 324 325 323 316 317 319 321 316 313 313 312 312
320 322 322 326 328 325 324 325 329 330 327 329 330 333 334 335 335 335 335 336 337 337 334 330 319 313 322 330 329 327 329 330 329 325 327 322 317 313 312 314 313 312 313 316 314 314 314 313 312
321 323 327 327 327 324 321 321 327 330 328 330 329 331 335 334 335 336 336 336 336 335 333 329 322 315 326 331 330 324 319 329 331 326 325 317 313 311 312 312 313 313 314 314 314 315 315 314 315
323 323 327 328 327 322 322 324 326 329 328 330 328 330 334 335 336 335 335 335 333 334 333 330 327 316 321 328 330 328 320 328 328 327 320 317 314 312 312 313 314 314 314 314 315 315 316 315 315
324 325 326 327 326 323 323 326 328 327 327 328 328 328 335 337 336 335 335 335 335 334 334 330 330 320 314 324 327 329 318 326 329 328 323 316 313 313 313 314 315 315 316 315 315 316 316 315 315
322 326 326 326 326 325 324 325 325 326 326 329 329 328 334 336 337 334 333 333 331 333 334 331 332 324 314 314 323 325 321 319 326 328 319 315 315 315 315 316 316 317 317 316 316 316 315 316 316
320 325 328 326 325 324 324 325 321 323 327 328 329 327 333 333 334 334 333 334 329 333 334 332 332 331 326 313 313 319 319 319 323 325 318 316 318 318 318 317 318 318 318 318 317 316 316 317 318
322 327 327 324 321 321 322 324 323 324 326 327 329 330 335 333 333 333 330 327 325 326 332 335 335 333 328 318 312 313 314 317 323 320 321 324 323 320 319 319 319 319 319 319 319 318 318 319 322
323 328 327 320 318 318 319 319 321 323 324 324 326 330 334 338 334 333 330 329 328 322 327 334 332 333 325 318 316 313 313 317 320 317 317 319 318 319 320 320 320 320 320 320 320 319 319 319 320
322 325 326 319 316 317 319 318 319 320 323 321 323 329 332 336 335 333 332 332 330 321 320 333 333 334 325 322 318 316 315 314 315 316 317 318 318 319 320 320 320 321 321 321 321 320 320 321 321
321 324 321 317 316 317 316 318 318 319 320 321 325 331 329 338 335 334 333 332 332 326 321 325 332 334 329 317 320 318 318 317 317 317 318 319 319 319 320 321 321 322 322 322 322 322 322 322 321
322 322 319 317 319 318 320 319 316 320 319 321 326 330 331 333 335 335 334 332 332 331 325 323 327 333 330 320 317 317 318 319 319 319 320 320 320 320 321 322 322 323 323 323 323 323 322 322 321
320 322 320 320 320 321 318 324 319 319 319 321 325 328 332 332 334 335 334 334 332 331 329 324 317 330 330 325 318 318 319 319 320 321 321 321 321 321 322 323 323 325 323 323 324 321 322 323 323
322 323 326 324 320 320 319 327 325 320 319 321 323 326 330 332 334 334 333 334 332 331 326 322 314 315 321 323 321 322 321 320 320 320 321 321 322 322 322 325 325 324 324 323 322 321 320 320 321
324 328 326 327 323 323 320 327 326 318 319 321 322 324 329 330 332 332 333 333 330 325 323 319 314 314 315 317 318 322 321 321 321 322 324 323 324 322 321 322 324 323 322 321 320 320 320 320 321
328 328 327 329 324 319 323 323 325 317 318 320 321 323 326 329 330 330 332 332 332 331 326 319 316 316 315 316 317 317 318 319 322 327 328 326 323 323 323 322 321 321 321 321 321 320 320 320 319
327 326 329 328 322 319 323 325 325 324 319 318 319 321 324 326 328 330 331 333 333 333 331 325 318 317 317 317 318 319 320 322 326 327 326 324 324 324 323 322 322 321 321 321 321 320 320 320 319
327 328 329 328 315 316 323 324 321 321 322 318 318 319 321 324 326 328 330 332 333 333 333 330 323 318 319 319 320 321 325 326 325 325 325 325 324 323 323 322 322 321 321 321 321 320 320 319 318
327 328 329 330 322 320 324 327 327 325 321 319 317 316 318 321 324 326 329 331 333 333 333 332 328 324 320 320 322 325 327 328 328 327 326 324 324 324 323 323 322 322 322 323 322 320 320 319 318
328 323 326 326 325 329 322 330 328 328 327 323 319 317 316 318 322 324 327 329 330 331 332 332 331 329 328 327 326 327 328 329 329 327 325 324 324 324 323 323 323 323 323 322 321 320 319 319 318
324 322 323 317 322 321 325 325 326 325 327 326 325 320 317 316 319 319 324 322 319 324 325 328 329 330 330 329 329 329 329 329 329 328 327 325 324 323 323 323 323 322 321 321 321 320 319 318 318
317 316 316 318 321 327 325 325 324 325 324 323 322 322 321 317 317 317 316 319 320 320 320 323 325 325 328 329 329 330 330 330 331 330 328 327 326 324 324 323 323 322 321 321 320 319 318 318 317
317 323 323 326 326 327 317 325 324 323 323 322 319 320 320 318 316 316 317 317 316 318 319 320 321 322 325 327 327 329 330 331 331 331 331 330 328 326 325 325 323 323 322 320 319 319 317 317 317
318 322 324 328 325 324 311 323 322 320 317 312 317 315 314 316 317 315 315 316 317 315 317 319 320 320 321 324 326 328 328 330 330 332 331 330 330 329 326 325 325 323 322 320 319 319 317 317 305
318 321 319 319 310 320 320 318 317 317 317 316 315 314 314 312 313 314 314 313 313 314 315 317 318 319 320 320 323 325 327 328 329 330 332 329 330 331 329 325 325 323 321 320 318 318 316 311 299
319 317 320 320 326 324 321 322 321 317 318 318 316 314 315 314 313 312 311 311 312 312 312 313 314 316 317 319 320 322 323 325 327 328 330 329 329 330 330 328 326 323 321 320 318 317 314 301 297
317 318 318 320 321 322 322 321 316 319 316 315 312 310 311 311 310 310 310 311 311 311 311 312 311 311 312 312 316 319 321 323 325 327 328 328 328 329 331 329 326 324 321 320 317 315 305 298 296
316 317 318 321 320 319 320 320 313 313 312 311 311 311 311 311 311 311 311 311 311 310 310 310 310 309 309 310 311 317 320 323 323 324 326 328 328 329 330 329 327 323 321 320 316 310 300 297 296

GFSSGP_850_thetae_114.txt.gz
Theta_e
322 321 320 324 327 328 331 329 328 328 329 330 332 333 335 336 339 341 336 338 337 335 333 327 324 317 314 319 323 326 329 330 332 330 331 328 328 327 320 328 325 322 317 313 312 312 312 312 312
322 321 322 324 327 332 329 327 328 330 330 332 332 332 336 336 336 336 336 338 337 335 334 329 320 313 314 314 315 324 329 330 329 326 329 331 330 327 320 323 328 322 322 315 312 312 312 312 312
322 320 322 326 329 329 327 326 330 330 330 331 332 333 335 336 335 335 336 337 337 337 336 326 315 313 318 318 321 323 327 327 327 329 330 330 326 327 319 314 313 322 319 315 313 312 312 311 311
322 322 322 324 328 324 323 324 330 328 328 330 331 333 334 336 336 336 337 337 336 338 333 324 314 319 327 326 327 329 330 328 329 328 329 324 318 313 312 312 313 314 318 314 314 313 313 312 311
321 322 325 327 328 324 321 321 328 329 328 330 330 331 334 333 334 335 336 336 336 336 330 322 315 327 332 329 325 326 331 329 327 328 320 313 312 311 312 313 313 315 314 314 315 315 315 315 314
321 323 326 328 327 322 321 323 325 329 329 329 328 332 334 333 334 335 335 335 335 334 330 324 317 326 331 330 327 323 329 330 327 320 317 312 311 312 313 314 314 314 314 315 315 315 315 314 315
322 325 326 325 327 323 322 326 327 328 328 328 327 331 335 334 334 334 335 334 334 333 331 328 319 319 327 328 328 321 327 328 327 325 316 314 313 313 314 315 315 315 315 315 315 315 315 315 316
320 324 327 325 326 325 324 326 325 326 327 328 328 329 334 333 334 335 335 334 333 333 332 328 323 316 318 325 327 320 322 328 329 322 315 315 315 315 315 316 317 317 316 316 315 315 315 316 317
321 323 327 327 327 325 324 324 323 324 327 327 327 329 333 330 334 334 335 333 335 333 332 331 329 317 314 314 320 319 315 321 325 320 315 316 317 317 317 317 318 318 318 317 317 316 317 318 319
324 324 326 325 321 320 323 324 323 324 326 327 329 333 334 332 334 333 333 333 332 332 333 333 331 329 319 313 313 315 313 315 318 318 320 322 318 319 319 319 319 319 319 319 318 318 317 318 321
322 323 326 323 320 319 319 321 322 323 323 325 328 333 333 335 333 333 333 332 330 332 332 333 331 330 327 314 312 312 311 312 315 316 321 320 318 319 320 320 320 319 320 320 319 318 318 320 320
322 323 324 319 317 318 319 318 319 320 322 322 324 328 330 333 332 332 332 330 325 326 332 332 333 331 327 320 314 312 313 313 314 315 317 318 319 319 320 319 320 320 321 321 321 320 320 321 321
323 324 326 318 317 318 317 318 318 319 320 321 325 329 330 331 332 334 332 330 329 328 323 329 332 331 328 327 323 316 315 315 315 316 317 318 319 319 319 320 321 321 321 322 322 322 323 322 320
322 322 321 318 318 318 319 320 317 320 319 321 327 330 330 328 333 334 333 332 332 330 321 326 331 330 330 325 326 321 317 317 317 317 318 318 319 320 320 321 321 322 322 322 321 322 321 320 323
321 322 319 318 318 319 319 321 318 321 319 321 324 330 331 329 332 333 333 332 332 331 330 321 326 330 330 328 323 321 319 318 319 319 319 319 319 320 320 321 322 326 322 322 323 321 321 321 321
321 322 322 321 320 320 321 324 324 324 319 320 322 327 331 332 329 333 334 334 333 332 331 327 323 326 330 328 320 318 320 319 319 321 320 320 320 320 321 322 323 324 323 323 322 321 320 320 320
323 326 325 326 322 320 318 325 324 324 319 319 321 324 329 332 331 333 335 334 334 333 331 331 326 321 318 326 321 319 318 318 319 319 320 321 321 322 322 323 324 324 323 322 321 320 320 319 320
329 327 326 325 325 322 320 319 321 320 318 319 320 322 326 329 331 332 333 333 334 332 331 329 324 317 314 318 318 319 319 319 319 319 319 320 322 323 321 321 320 321 320 320 320 320 320 319 320
327 327 328 326 321 320 321 322 322 323 318 318 319 320 324 327 328 330 331 331 333 331 327 324 322 316 314 316 318 319 318 318 319 320 320 323 323 323 322 322 321 321 320 320 321 320 320 319 319
327 327 328 327 316 317 320 321 321 322 324 324 319 319 320 324 326 328 329 326 332 332 332 328 324 318 316 316 315 315 316 317 319 321 325 326 326 322 323 323 322 321 321 320 321 321 320 319 319
327 328 326 328 319 320 320 322 323 323 323 321 321 318 319 320 324 326 328 326 329 331 332 331 329 324 318 317 317 317 318 319 322 324 326 326 324 324 324 323 322 322 321 321 321 321 320 319 319
326 325 325 326 325 329 321 325 325 324 324 322 320 319 317 317 320 324 326 327 324 328 332 332 330 329 325 319 319 319 320 321 324 325 325 325 325 324 323 323 323 323 322 321 322 321 320 319 319
325 323 324 320 322 322 325 324 323 322 324 323 323 321 319 318 317 320 324 324 323 325 327 330 331 330 329 326 322 319 320 322 324 326 327 327 326 324 324 324 323 322 322 321 320 320 320 319 319
317 318 318 317 322 326 324 324 324 323 321 322 324 323 322 320 318 317 320 323 324 325 325 326 329 330 330 330 328 327 326 325 326 327 328 328 327 325 324 323 322 322 322 321 321 320 320 319 319
319 322 323 326 325 326 318 323 323 321 319 320 320 319 320 322 320 318 318 321 322 322 321 321 324 327 329 331 330 328 328 328 328 327 328 329 328 327 326 324 323 323 323 322 321 320 319 319 319
321 322 320 323 323 321 311 320 321 321 320 319 319 320 318 317 319 319 317 317 320 322 322 322 321 320 324 327 327 328 328 329 329 328 329 330 330 329 328 327 325 325 324 323 321 321 319 318 318
319 323 318 316 307 316 316 316 316 316 314 313 313 314 315 315 314 316 316 316 317 320 323 323 323 323 324 323 323 326 327 327 328 328 329 330 330 328 330 330 328 326 325 324 322 321 320 318 318
318 317 321 319 318 320 319 319 319 315 315 314 313 315 314 315 313 313 313 313 314 313 313 315 317 318 320 323 324 324 324 324 326 329 330 330 330 331 328 329 330 328 326 325 323 321 320 318 317
317 319 320 320 320 320 319 317 312 316 314 313 309 310 312 311 310 310 311 310 310 310 310 311 311 312 313 314 317 322 324 325 327 329 330 331 331 331 329 328 329 329 327 325 323 321 320 319 317
317 319 318 321 319 317 317 316 311 309 308 311 310 311 311 311 311 312 313 313 312 312 310 310 310 310 311 311 311 314 319 324 325 326 329 331 332 331 331 329 328 329 327 326 324 321 320 317 315

GFSSGP_850_thetae_117.txt.gz
Theta_e
324 321 321 324 321 320 325 327 324 326 328 331 332 333 335 336 337 337 336 339 337 333 333 323 319 315 317 323 329 330 331 330 330 329 329 329 323 327 319 321 317 321 315 313 313 312 312 311 312
322 321 322 323 321 325 324 325 329 327 330 331 332 334 335 335 335 337 338 337 336 333 329 328 316 313 314 317 324 327 330 329 327 329 329 328 326 321 321 318 323 317 313 312 312 311 311 311 313
322 321 323 322 323 325 324 328 327 329 331 331 331 335 335 335 335 336 338 337 335 333 328 320 312 313 314 314 324 328 330 325 329 329 328 328 324 315 314 316 320 314 313 312 312 311 311 311 315
322 321 321 319 323 322 321 326 327 327 329 330 331 333 334 336 335 335 336 336 335 333 328 317 316 319 317 314 325 325 327 328 328 328 328 324 313 312 312 312 313 313 313 313 313 313 312 312 314
321 322 321 323 323 321 317 326 328 326 327 330 330 333 334 335 335 335 336 336 336 335 327 315 322 326 322 323 329 329 328 327 327 325 315 312 311 312 312 313 313 314 314 314 314 314 314 315 316
321 322 322 324 324 320 320 323 326 327 328 328 332 333 332 331 334 335 335 335 336 334 325 316 326 331 327 319 324 331 330 327 324 317 313 311 311 312 313 314 314 314 314 314 314 314 315 315 316
321 323 323 323 323 319 323 325 325 326 328 327 328 334 332 332 334 335 335 336 335 333 327 318 323 330 330 325 319 327 329 326 320 315 313 311 312 313 315 315 315 315 315 314 314 315 316 317 317
320 321 325 322 323 323 324 324 324 326 328 328 327 333 332 333 333 335 333 333 333 333 329 324 317 325 328 328 319 322 326 327 322 314 313 312 313 315 315 316 316 316 315 315 315 316 317 318 318
321 319 324 324 325 322 324 321 323 326 327 328 327 331 332 330 333 334 333 332 332 332 331 327 320 316 322 327 323 316 324 326 319 313 314 314 316 316 317 317 317 317 317 316 316 317 318 317 318
325 320 323 321 319 319 323 322 323 323 326 328 327 328 330 332 333 333 333 332 332 332 332 329 327 317 315 316 321 315 317 318 316 313 313 315 317 318 318 318 318 318 318 318 317 317 317 318 318
321 323 323 319 319 319 319 321 322 322 322 327 328 330 330 333 333 333 333 332 332 332 332 332 329 326 320 315 316 315 313 316 318 315 315 317 318 319 319 318 318 318 319 319 318 318 319 319 320
321 321 322 321 318 318 318 319 319 321 322 321 324 326 328 332 333 332 332 332 333 331 333 333 330 331 328 315 313 316 312 313 316 316 317 319 318 319 318 319 319 319 319 319 319 319 320 320 319
321 321 323 321 318 318 318 318 317 318 319 321 325 329 328 328 331 332 332 331 332 332 332 333 331 331 330 321 315 313 313 314 314 315 316 317 317 317 317 318 319 320 320 320 320 321 321 320 319
321 322 321 316 317 317 318 318 318 319 318 323 325 329 329 326 328 331 332 331 329 328 330 332 332 331 330 323 320 318 315 315 315 315 316 316 317 317 318 319 320 321 321 321 321 321 320 321 322
322 320 320 317 317 319 318 319 316 321 319 325 328 329 330 327 327 332 332 331 331 329 326 327 330 332 330 327 322 321 318 317 316 317 317 318 318 319 319 320 321 321 321 321 322 321 320 319 319
320 321 320 318 317 319 319 322 321 322 320 321 327 329 329 328 325 330 332 332 331 331 331 325 325 330 330 328 327 319 319 318 318 319 318 319 319 319 320 320 321 321 322 322 322 321 319 319 319
322 323 323 323 318 318 318 321 322 323 321 319 320 327 328 330 329 325 333 332 332 332 332 331 323 327 328 327 325 322 318 318 318 318 319 319 319 320 320 321 321 323 323 322 321 320 319 319 319
326 326 324 324 321 317 317 317 319 321 318 319 319 321 327 329 327 325 331 333 333 332 332 331 330 323 326 323 320 322 319 317 318 318 319 319 320 320 321 322 321 322 322 322 320 319 319 319 319
323 324 325 322 321 320 321 319 317 320 319 317 319 319 323 328 325 327 328 334 334 333 332 332 331 328 324 322 316 319 319 318 319 319 319 319 319 320 322 321 321 320 319 319 319 320 319 319 319
325 325 326 324 317 320 318 319 318 320 321 321 319 319 319 325 327 327 327 333 334 333 333 332 330 330 325 322 314 314 316 317 318 319 319 320 320 323 324 322 321 321 320 320 320 320 320 319 319
324 327 327 328 315 317 319 319 320 320 321 322 323 322 323 320 325 327 327 328 330 331 332 331 328 325 322 317 314 314 318 320 320 319 319 320 323 325 325 322 322 321 321 321 320 320 321 320 318
325 324 324 321 323 326 318 323 320 321 321 320 320 321 321 320 319 325 325 327 328 325 330 331 330 327 325 319 316 315 316 316 316 317 319 321 323 325 324 323 323 322 322 321 321 321 321 321 319
322 322 320 321 320 322 323 323 320 318 320 320 322 322 321 320 318 319 324 323 323 325 323 329 330 330 329 327 321 317 317 317 318 318 319 322 325 325 324 324 323 323 322 322 322 321 321 320 320
316 319 319 319 321 326 323 324 322 321 321 319 320 324 324 322 319 318 318 319 321 324 325 324 329 331 331 330 328 325 320 319 319 319 320 323 325 326 326 325 323 323 323 322 322 321 320 320 320
320 323 324 325 326 324 319 322 324 318 317 317 319 319 323 324 322 320 318 318 320 322 324 324 326 330 331 331 330 329 327 324 322 321 321 322 325 326 326 326 324 323 322 322 322 322 320 320 320
322 322 318 320 321 318 312 320 319 319 320 320 321 321 319 318 318 321 321 320 317 320 323 324 326 327 330 331 330 330 330 329 327 327 327 327 327 326 326 327 326 325 323 323 323 322 322 321 320
320 323 315 313 302 312 314 314 314 314 315 314 314 314 317 317 316 316 319 319 317 317 319 321 322 322 323 323 326 329 329 329 328 328 328 328 327 327 327 328 329 328 326 325 324 324 323 322 320
319 317 321 314 315 318 316 315 316 314 315 313 312 314 315 314 313 313 313 316 316 317 318 320 322 322 322 323 325 325 326 326 327 328 327 326 325 325 328 329 328 328 329 328 326 325 325 323 321
319 320 318 318 315 317 316 315 311 312 315 313 310 312 312 313 313 311 311 311 312 313 313 315 316 317 318 321 324 326 327 327 327 327 326 326 327 327 328 328 328 330 329 329 328 327 325 323 322
317 319 320 321 319 315 314 315 310 309 309 308 309 310 311 310 312 313 313 312 312 312 311 310 309 310 311 313 318 320 324 326 328 328 328 330 328 328 328 327 327 326 326 327 328 327 326 324 323

GFSSGP_850_thetae_123.txt.gz
Theta_e
330 327 324 323 322 319 323 325 323 326 329 331 332 333 332 333 331 329 335 336 336 334 333 328 327 331 331 333 332 331 329 327 326 318 318 321 320 321 317 317 324 319 316 313 315 316 316 319 319
329 325 321 322 321 324 323 323 325 326 332 333 333 333 332 333 335 336 337 335 334 333 329 320 319 326 327 331 331 330 327 329 327 321 327 324 315 322 316 315 318 315 312 312 313 313 315 316 315
325 322 322 319 318 322 323 326 327 329 332 330 334 334 333 334 335 336 337 335 332 332 324 318 315 317 322 327 329 330 326 329 327 319 312 311 314 318 315 313 312 312 311 311 312 313 314 314 313
323 321 320 319 323 321 325 326 327 325 328 330 333 332 334 335 335 335 337 335 333 331 325 315 314 315 317 324 330 329 324 327 326 314 311 311 312 314 313 313 313 312 312 311 312 313 313 313 314
322 321 319 320 322 319 323 326 326 325 327 330 331 332 334 335 335 336 335 335 334 329 319 315 314 314 322 328 327 326 324 325 319 311 310 311 312 313 313 313 313 313 313 313 313 314 314 314 315
321 320 321 325 321 319 322 327 325 325 327 330 332 333 334 334 334 335 334 334 333 328 318 317 318 314 322 326 326 325 324 320 311 310 310 311 312 313 313 313 313 313 313 314 314 315 315 315 316
320 317 320 321 320 318 319 323 325 325 326 327 330 329 332 334 334 334 334 334 334 332 319 319 320 320 323 328 329 327 325 323 314 310 311 312 313 314 314 313 313 313 313 313 314 315 316 317 316
320 320 322 320 320 320 321 322 324 327 326 331 331 327 329 333 333 333 333 334 334 334 320 321 325 322 323 325 329 328 326 316 314 312 311 313 314 314 314 314 313 313 314 314 315 315 317 317 317
321 318 322 324 320 321 322 321 323 326 327 327 329 327 329 330 332 333 333 335 334 333 325 320 326 326 321 323 329 329 326 321 316 312 312 313 314 315 315 315 314 314 314 315 315 316 316 316 317
320 317 321 321 319 320 322 322 325 326 327 328 328 329 330 329 331 332 332 334 333 332 331 321 323 326 326 321 320 324 326 324 316 313 313 314 315 316 316 316 316 315 315 316 316 316 317 317 317
321 320 320 319 317 321 320 320 322 324 324 324 324 326 329 329 331 332 332 333 332 332 331 329 322 322 323 322 319 316 322 325 318 313 314 315 316 316 317 316 316 316 316 317 316 317 317 318 318
321 320 322 320 318 318 319 321 320 323 323 323 324 323 325 327 329 331 332 332 331 330 331 331 328 323 319 319 319 316 316 320 318 315 315 316 317 318 317 317 317 317 318 317 317 317 318 319 318
319 320 321 322 323 320 317 318 318 320 321 322 324 325 325 325 327 329 332 332 331 330 330 331 330 327 323 316 315 316 314 314 315 314 314 318 318 318 318 318 318 318 319 319 319 319 319 319 319
323 321 322 321 317 316 315 316 316 318 318 320 320 322 325 324 324 328 331 332 331 330 330 331 331 330 327 325 316 313 314 313 313 314 314 316 317 317 317 317 317 318 318 319 319 320 320 319 320
326 322 319 318 316 316 317 316 315 318 318 319 320 323 326 326 326 325 326 330 331 331 331 331 331 331 329 329 328 317 312 312 312 313 314 315 315 316 316 317 318 319 320 320 321 321 320 320 319
322 321 325 319 316 316 317 319 318 318 318 320 320 323 325 326 326 326 327 327 331 332 331 331 331 330 331 330 330 327 315 313 313 314 314 315 315 316 317 318 318 319 320 320 321 321 320 319 318
316 321 322 322 316 316 316 318 318 321 318 319 321 322 324 326 327 326 326 325 326 330 331 331 331 330 330 330 330 329 324 317 316 315 315 316 316 317 318 318 318 320 320 321 321 321 321 319 318
319 321 321 323 319 316 316 314 315 320 318 319 320 322 325 325 324 324 326 325 323 328 331 331 331 330 329 330 330 330 328 325 320 318 317 317 317 317 318 318 319 320 321 321 322 322 321 319 318
318 320 321 319 319 317 317 316 315 317 316 317 318 319 322 325 321 324 325 326 323 328 330 330 329 328 326 327 329 330 329 326 323 319 317 317 318 318 319 319 319 320 321 322 322 322 321 319 318
321 322 321 320 319 318 319 319 315 315 317 318 320 320 318 319 321 321 324 326 325 323 328 330 331 330 329 328 327 327 327 326 325 320 318 317 317 318 319 319 319 320 321 322 322 322 320 319 318
320 321 321 322 317 316 317 319 318 315 319 320 321 322 322 322 320 319 320 323 326 324 324 327 329 331 331 331 329 326 328 328 326 324 318 316 317 318 318 319 319 320 322 322 321 320 319 319 319
322 319 322 323 320 323 317 322 321 318 318 316 319 321 323 323 323 323 320 319 323 324 324 324 327 329 331 331 331 330 326 326 326 325 321 314 316 317 318 318 318 320 323 323 321 321 319 319 320
320 320 322 321 319 320 322 325 320 317 318 318 319 320 322 323 324 323 322 321 320 323 324 323 325 327 328 331 331 331 331 329 326 326 325 318 315 315 316 318 318 320 323 324 323 322 321 320 320
317 318 318 317 319 324 321 322 319 319 318 317 318 322 323 323 323 323 324 322 322 322 324 324 325 326 328 329 330 331 331 330 329 327 325 321 315 316 317 317 318 319 322 324 325 323 322 321 321
319 321 323 325 324 321 315 318 320 316 316 317 319 321 322 322 322 323 324 322 322 322 321 324 325 325 325 327 328 328 330 329 327 325 323 320 317 316 316 317 318 318 320 323 325 325 323 322 322
320 320 317 320 320 317 314 320 318 316 318 319 320 320 321 321 322 322 323 324 322 321 320 320 324 324 325 326 326 326 328 328 328 327 326 327 325 323 322 320 319 319 319 321 324 326 325 323 323
320 321 314 312 299 311 314 313 312 311 312 314 315 319 320 320 320 320 322 323 324 322 320 319 320 322 323 324 325 325 326 327 327 327 328 329 329 328 328 327 326 324 323 323 324 325 326 325 324
319 318 320 314 313 315 314 313 315 313 316 315 312 314 318 320 319 317 316 317 319 321 322 319 317 318 319 322 325 325 325 326 327 328 328 328 329 329 329 329 329 328 328 327 326 326 325 325 325
318 321 318 317 312 315 313 313 309 314 314 314 314 315 317 319 320 318 315 316 316 316 318 319 318 317 317 319 322 325 326 326 327 328 329 329 330 330 329 328 327 326 326 325 327 325 324 325 324
318 319 319 321 318 312 311 315 309 309 310 312 314 316 318 318 318 316 314 313 313 314 315 316 317 317 317 319 321 322 324 325 326 326 326 325 328 327 326 326 325 325 325 325 326 326 324 325 325